Wetterdaten: Donnerstag, 30.04.2020
Datum Zeit Temp. Aussen Temp. o. S. Temp +5cm Feuchte Auss Luftdruck Regen Sonnenschein Regendauer Solar Windben Empfang
30.04.2020 00:00 14,5 C 13,9 C 12,8 C 74 % 1003,1 hPa 0,0 l/m 0 min 0 min 0 W/m 25,7 km/h (4 Bft) 97,87 %
30.04.2020 00:02 14,5 C 13,9 C 12,8 C 74 % 1003,1 hPa 0,0 l/m 0 min 0 min 0 W/m 19,3 km/h (3 Bft) 97,30 %
30.04.2020 00:04 14,5 C 13,3 C 12,8 C 74 % 1003,1 hPa 0,0 l/m 0 min 0 min 0 W/m 19,3 km/h (3 Bft) 97,87 %
30.04.2020 00:08 14,4 C 13,3 C 12,8 C 75 % 1003,1 hPa 0,0 l/m 0 min 0 min 0 W/m 32,2 km/h (5 Bft) 96,81 %
30.04.2020 00:10 14,4 C 13,3 C 12,8 C 75 % 1003,3 hPa 0,0 l/m 0 min 0 min 0 W/m 38,6 km/h (5 Bft) 97,83 %
30.04.2020 00:12 14,4 C 13,3 C 12,8 C 75 % 1003,1 hPa 0,0 l/m 0 min 0 min 0 W/m 35,4 km/h (5 Bft) 97,87 %
30.04.2020 00:14 14,4 C 13,3 C 12,2 C 76 % 1003,4 hPa 0,0 l/m 0 min 2 min 0 W/m 25,7 km/h (4 Bft) 97,87 %
30.04.2020 00:16 14,3 C 12,8 C 12,2 C 76 % 1003,3 hPa 0,0 l/m 0 min 0 min 0 W/m 29,0 km/h (5 Bft) 97,87 %
30.04.2020 00:18 14,3 C 12,8 C 11,7 C 76 % 1003,5 hPa 0,0 l/m 0 min 2 min 0 W/m 48,3 km/h (6 Bft) 97,87 %
30.04.2020 00:20 14,3 C 12,8 C 11,7 C 77 % 1003,5 hPa 0,0 l/m 0 min 2 min 0 W/m 25,7 km/h (4 Bft) 97,87 %
30.04.2020 00:22 14,2 C 12,2 C 11,7 C 77 % 1003,4 hPa 0,0 l/m 0 min 2 min 0 W/m 19,3 km/h (3 Bft) 97,83 %
30.04.2020 00:24 14,0 C 12,2 C 11,7 C 77 % 1003,5 hPa 0,0 l/m 0 min 2 min 0 W/m 19,3 km/h (3 Bft) 97,87 %
30.04.2020 00:26 13,8 C 12,2 C 11,7 C 77 % 1003,5 hPa 0,0 l/m 0 min 2 min 0 W/m 16,1 km/h (3 Bft) 97,87 %
30.04.2020 00:28 13,8 C 11,7 C 11,7 C 78 % 1003,5 hPa 0,0 l/m 0 min 0 min 0 W/m 19,3 km/h (3 Bft) 95,74 %
30.04.2020 00:30 13,7 C 11,7 C 11,1 C 78 % 1003,5 hPa 0,0 l/m 0 min 0 min 0 W/m 16,1 km/h (3 Bft) 97,87 %
30.04.2020 00:32 13,6 C 11,7 C 11,1 C 78 % 1003,4 hPa 0,0 l/m 0 min 2 min 0 W/m 16,1 km/h (3 Bft) 97,87 %
30.04.2020 00:34 13,5 C 11,7 C 11,1 C 79 % 1003,5 hPa 0,0 l/m 0 min 0 min 0 W/m 12,9 km/h (3 Bft) 97,83 %
30.04.2020 00:36 13,4 C 11,7 C 11,1 C 79 % 1003,5 hPa 0,0 l/m 0 min 0 min 0 W/m 12,9 km/h (3 Bft) 97,87 %
30.04.2020 00:38 13,3 C 11,7 C 11,1 C 79 % 1003,5 hPa 0,0 l/m 0 min 0 min 0 W/m 29,0 km/h (5 Bft) 97,87 %
30.04.2020 00:40 13,2 C 11,7 C 11,1 C 79 % 1003,4 hPa 0,0 l/m 0 min 0 min 0 W/m 16,1 km/h (3 Bft) 100,00 %
30.04.2020 00:42 13,1 C 11,7 C 11,1 C 80 % 1003,4 hPa 0,0 l/m 0 min 0 min 0 W/m 12,9 km/h (3 Bft) 100,00 %
30.04.2020 00:44 13,1 C 11,7 C 11,1 C 80 % 1003,5 hPa 0,0 l/m 0 min 0 min 0 W/m 12,9 km/h (3 Bft) 100,00 %
30.04.2020 00:46 13,0 C 11,1 C 11,1 C 80 % 1003,4 hPa 0,0 l/m 0 min 2 min 0 W/m 12,9 km/h (3 Bft) 100,00 %
30.04.2020 00:48 12,9 C 11,1 C 11,1 C 81 % 1003,5 hPa 0,0 l/m 0 min 0 min 0 W/m 12,9 km/h (3 Bft) 95,74 %
30.04.2020 00:50 12,9 C 11,1 C 10,6 C 81 % 1003,4 hPa 0,0 l/m 0 min 2 min 0 W/m 6,4 km/h (2 Bft) 97,87 %
30.04.2020 00:52 12,8 C 11,1 C 10,6 C 82 % 1003,4 hPa 0,0 l/m 0 min 0 min 0 W/m 3,2 km/h (1 Bft) 97,87 %
30.04.2020 00:54 12,8 C 11,1 C 10,6 C 82 % 1003,4 hPa 0,0 l/m 0 min 2 min 0 W/m 6,4 km/h (2 Bft) 100,00 %
30.04.2020 00:56 12,8 C 11,1 C 10,6 C 82 % 1003,4 hPa 0,0 l/m 0 min 2 min 0 W/m 16,1 km/h (3 Bft) 97,83 %
30.04.2020 00:58 12,7 C 11,1 C 10,6 C 83 % 1003,4 hPa 0,0 l/m 0 min 2 min 0 W/m 12,9 km/h (3 Bft) 97,87 %
30.04.2020 01:00 12,7 C 11,1 C 10,6 C 83 % 1003,4 hPa 0,0 l/m 0 min 2 min 0 W/m 12,9 km/h (3 Bft) 100,00 %
30.04.2020 01:02 12,6 C 10,6 C 10,6 C 83 % 1003,4 hPa 0,0 l/m 0 min 2 min 0 W/m 19,3 km/h (3 Bft) 100,00 %
30.04.2020 01:04 12,6 C 10,6 C 10,6 C 83 % 1003,4 hPa 0,0 l/m 0 min 0 min 0 W/m 16,1 km/h (3 Bft) 97,87 %
30.04.2020 01:06 12,5 C 10,6 C 10,0 C 83 % 1003,4 hPa 0,0 l/m 0 min 2 min 0 W/m 19,3 km/h (3 Bft) 100,00 %
30.04.2020 01:08 12,4 C 10,6 C 10,6 C 83 % 1003,4 hPa 0,0 l/m 0 min 2 min 0 W/m 19,3 km/h (3 Bft) 97,83 %
30.04.2020 01:10 12,3 C 10,6 C 10,6 C 83 % 1003,5 hPa 0,0 l/m 0 min 2 min 0 W/m 19,3 km/h (3 Bft) 100,00 %
30.04.2020 01:12 12,2 C 10,6 C 10,0 C 83 % 1003,5 hPa 0,0 l/m 0 min 2 min 0 W/m 19,3 km/h (3 Bft) 97,87 %
30.04.2020 01:14 12,2 C 10,6 C 10,0 C 83 % 1003,4 hPa 0,0 l/m 0 min 2 min 0 W/m 6,4 km/h (2 Bft) 97,87 %
30.04.2020 01:16 12,2 C 10,0 C 10,0 C 84 % 1003,4 hPa 0,0 l/m 0 min 2 min 0 W/m 19,3 km/h (3 Bft) 97,87 %
30.04.2020 01:18 12,1 C 10,0 C 9,4 C 84 % 1003,4 hPa 0,0 l/m 0 min 2 min 0 W/m 19,3 km/h (3 Bft) 100,00 %
30.04.2020 01:20 12,1 C 9,4 C 9,4 C 85 % 1003,4 hPa 0,0 l/m 0 min 2 min 0 W/m 16,1 km/h (3 Bft) 100,00 %
30.04.2020 01:22 12,0 C 9,4 C 9,4 C 85 % 1003,5 hPa 0,0 l/m 0 min 2 min 0 W/m 25,7 km/h (4 Bft) 95,74 %
30.04.2020 01:24 12,0 C 9,4 C 9,4 C 85 % 1003,4 hPa 0,0 l/m 0 min 2 min 0 W/m 16,1 km/h (3 Bft) 97,87 %
30.04.2020 01:26 11,9 C 9,4 C 9,4 C 86 % 1003,4 hPa 0,2 l/m 0 min 2 min 0 W/m 29,0 km/h (5 Bft) 97,87 %
30.04.2020 01:28 11,9 C 8,9 C 8,9 C 86 % 1003,4 hPa 0,0 l/m 0 min 2 min 0 W/m 16,1 km/h (3 Bft) 97,87 %
30.04.2020 01:30 11,8 C 8,9 C 8,9 C 86 % 1003,5 hPa 0,0 l/m 0 min 2 min 0 W/m 22,5 km/h (4 Bft) 97,87 %
30.04.2020 01:32 11,8 C 8,9 C 8,9 C 86 % 1003,4 hPa 0,0 l/m 0 min 2 min 0 W/m 12,9 km/h (3 Bft) 95,65 %
30.04.2020 01:34 11,7 C 8,9 C 8,9 C 87 % 1003,4 hPa 0,0 l/m 0 min 2 min 0 W/m 16,1 km/h (3 Bft) 97,87 %
30.04.2020 01:36 11,7 C 8,9 C 8,9 C 87 % 1003,5 hPa 0,0 l/m 0 min 2 min 0 W/m 9,7 km/h (2 Bft) 97,87 %
30.04.2020 01:38 11,6 C 8,9 C 8,9 C 87 % 1003,5 hPa 0,0 l/m 0 min 2 min 0 W/m 12,9 km/h (3 Bft) 97,87 %
30.04.2020 01:40 11,6 C 8,9 C 8,9 C 87 % 1003,4 hPa 0,0 l/m 0 min 2 min 0 W/m 19,3 km/h (3 Bft) 97,87 %
30.04.2020 01:42 11,5 C 8,9 C 8,9 C 88 % 1003,4 hPa 0,0 l/m 0 min 2 min 0 W/m 19,3 km/h (3 Bft) 97,87 %
30.04.2020 01:44 11,4 C 8,9 C 8,9 C 88 % 1003,4 hPa 0,2 l/m 0 min 2 min 0 W/m 22,5 km/h (4 Bft) 95,65 %
30.04.2020 01:46 11,4 C 8,9 C 8,9 C 88 % 1003,4 hPa 0,0 l/m 0 min 2 min 0 W/m 19,3 km/h (3 Bft) 97,87 %
30.04.2020 01:48 11,3 C 8,9 C 8,9 C 88 % 1003,3 hPa 0,0 l/m 0 min 2 min 0 W/m 6,4 km/h (2 Bft) 97,87 %
30.04.2020 01:50 11,3 C 8,9 C 8,9 C 88 % 1003,3 hPa 0,0 l/m 0 min 2 min 0 W/m 6,4 km/h (2 Bft) 97,87 %
30.04.2020 01:52 11,3 C 8,9 C 8,9 C 89 % 1003,3 hPa 0,0 l/m 0 min 2 min 0 W/m 9,7 km/h (2 Bft) 95,74 %
30.04.2020 01:54 11,2 C 8,9 C 8,9 C 89 % 1003,4 hPa 0,0 l/m 0 min 2 min 0 W/m 22,5 km/h (4 Bft) 95,65 %
30.04.2020 01:56 11,2 C 8,9 C 8,9 C 89 % 1003,3 hPa 0,0 l/m 0 min 2 min 0 W/m 12,9 km/h (3 Bft) 97,87 %
30.04.2020 01:58 11,1 C 8,9 C 8,3 C 89 % 1003,3 hPa 0,0 l/m 0 min 2 min 0 W/m 19,3 km/h (3 Bft) 97,87 %
30.04.2020 02:00 11,1 C 8,9 C 8,3 C 89 % 1003,3 hPa 0,0 l/m 0 min 2 min 0 W/m 19,3 km/h (3 Bft) 97,87 %
30.04.2020 02:02 11,1 C 8,9 C 8,9 C 89 % 1003,3 hPa 0,0 l/m 0 min 2 min 0 W/m 12,9 km/h (3 Bft) 97,87 %
30.04.2020 02:04 10,9 C 8,9 C 8,3 C 90 % 1003,2 hPa 0,0 l/m 0 min 2 min 0 W/m 25,7 km/h (4 Bft) 97,87 %
30.04.2020 02:06 10,9 C 8,9 C 8,3 C 90 % 1003,2 hPa 0,0 l/m 0 min 2 min 0 W/m 16,1 km/h (3 Bft) 97,83 %
30.04.2020 02:08 10,9 C 8,9 C 8,9 C 90 % 1003,2 hPa 0,0 l/m 0 min 2 min 0 W/m 6,4 km/h (2 Bft) 95,74 %
30.04.2020 02:10 10,8 C 8,9 C 8,3 C 90 % 1003,2 hPa 0,0 l/m 0 min 2 min 0 W/m 16,1 km/h (3 Bft) 93,62 %
30.04.2020 02:12 10,8 C 8,9 C 8,3 C 90 % 1003,2 hPa 0,0 l/m 0 min 2 min 0 W/m 12,9 km/h (3 Bft) 95,74 %
30.04.2020 02:14 10,8 C 8,9 C 8,3 C 90 % 1003,1 hPa 0,2 l/m 0 min 2 min 0 W/m 16,1 km/h (3 Bft) 97,87 %
30.04.2020 02:16 10,8 C 8,9 C 8,3 C 90 % 1003,1 hPa 0,0 l/m 0 min 2 min 0 W/m 22,5 km/h (4 Bft) 97,87 %
30.04.2020 02:18 10,7 C 8,3 C 8,3 C 90 % 1003,1 hPa 0,0 l/m 0 min 2 min 0 W/m 25,7 km/h (4 Bft) 97,83 %
30.04.2020 02:20 10,7 C 8,3 C 8,3 C 90 % 1003,0 hPa 0,0 l/m 0 min 2 min 0 W/m 16,1 km/h (3 Bft) 97,87 %
30.04.2020 02:22 10,6 C 8,9 C 8,3 C 90 % 1003,0 hPa 0,0 l/m 0 min 0 min 0 W/m 16,1 km/h (3 Bft) 97,87 %
30.04.2020 02:24 10,6 C 8,3 C 8,3 C 90 % 1002,9 hPa 0,0 l/m 0 min 2 min 0 W/m 12,9 km/h (3 Bft) 97,87 %
30.04.2020 02:26 10,6 C 8,9 C 8,3 C 90 % 1002,9 hPa 0,0 l/m 0 min 0 min 0 W/m 6,4 km/h (2 Bft) 97,87 %
30.04.2020 02:28 10,6 C 8,3 C 8,3 C 91 % 1003,0 hPa 0,0 l/m 0 min 2 min 0 W/m 22,5 km/h (4 Bft) 95,74 %
30.04.2020 02:30 10,6 C 8,3 C 8,3 C 91 % 1003,0 hPa 0,0 l/m 0 min 0 min 0 W/m 12,9 km/h (3 Bft) 97,83 %
30.04.2020 02:32 10,5 C 8,9 C 8,3 C 91 % 1003,0 hPa 0,0 l/m 0 min 0 min 0 W/m 12,9 km/h (3 Bft) 95,74 %
30.04.2020 02:34 10,5 C 8,9 C 8,3 C 91 % 1003,0 hPa 0,0 l/m 0 min 0 min 0 W/m 12,9 km/h (3 Bft) 97,87 %
30.04.2020 02:36 10,5 C 8,9 C 8,3 C 91 % 1003,0 hPa 0,0 l/m 0 min 0 min 0 W/m 12,9 km/h (3 Bft) 97,87 %
30.04.2020 02:38 10,4 C 8,3 C 8,3 C 91 % 1003,0 hPa 0,0 l/m 0 min 0 min 0 W/m 16,1 km/h (3 Bft) 97,87 %
30.04.2020 02:40 10,4 C 8,9 C 8,3 C 91 % 1003,0 hPa 0,0 l/m 0 min 0 min 0 W/m 22,5 km/h (4 Bft) 97,87 %
30.04.2020 02:42 10,4 C 8,9 C 8,3 C 91 % 1002,9 hPa 0,0 l/m 0 min 0 min 0 W/m 6,4 km/h (2 Bft) 97,83 %
30.04.2020 02:44 10,4 C 8,9 C 8,3 C 91 % 1002,9 hPa 0,0 l/m 0 min 0 min 0 W/m 16,1 km/h (3 Bft) 97,87 %
30.04.2020 02:46 10,3 C 8,9 C 8,3 C 91 % 1002,9 hPa 0,0 l/m 0 min 0 min 0 W/m 6,4 km/h (2 Bft) 95,74 %
30.04.2020 02:48 10,3 C 8,9 C 8,3 C 91 % 1002,9 hPa 0,0 l/m 0 min 0 min 0 W/m 16,1 km/h (3 Bft) 97,87 %
30.04.2020 02:50 10,3 C 8,9 C 8,3 C 91 % 1002,9 hPa 0,0 l/m 0 min 0 min 0 W/m 12,9 km/h (3 Bft) 95,74 %
30.04.2020 02:52 10,3 C 8,9 C 8,3 C 91 % 1002,9 hPa 0,0 l/m 0 min 0 min 0 W/m 6,4 km/h (2 Bft) 97,83 %
30.04.2020 02:54 10,3 C 8,9 C 8,3 C 92 % 1002,8 hPa 0,0 l/m 0 min 0 min 0 W/m 16,1 km/h (3 Bft) 97,87 %
30.04.2020 02:56 10,3 C 8,9 C 8,3 C 92 % 1002,8 hPa 0,0 l/m 0 min 0 min 0 W/m 12,9 km/h (3 Bft) 97,87 %
30.04.2020 02:58 10,3 C 8,9 C 8,3 C 92 % 1002,8 hPa 0,0 l/m 0 min 0 min 0 W/m 6,4 km/h (2 Bft) 97,87 %
30.04.2020 03:00 10,3 C 8,9 C 8,3 C 92 % 1002,8 hPa 0,0 l/m 0 min 0 min 0 W/m 12,9 km/h (3 Bft) 97,87 %
30.04.2020 03:02 10,3 C 8,9 C 8,3 C 92 % 1002,7 hPa 0,0 l/m 0 min 0 min 0 W/m 6,4 km/h (2 Bft) 97,87 %
30.04.2020 03:04 10,3 C 8,9 C 8,3 C 92 % 1002,6 hPa 0,0 l/m 0 min 0 min 0 W/m 16,1 km/h (3 Bft) 100,00 %
30.04.2020 03:06 10,3 C 8,9 C 8,3 C 92 % 1002,6 hPa 0,0 l/m 0 min 0 min 0 W/m 9,7 km/h (2 Bft) 100,00 %
30.04.2020 03:08 10,2 C 8,9 C 8,3 C 92 % 1002,6 hPa 0,0 l/m 0 min 0 min 0 W/m 16,1 km/h (3 Bft) 97,87 %
30.04.2020 03:10 10,2 C 8,9 C 8,3 C 92 % 1002,6 hPa 0,0 l/m 0 min 0 min 0 W/m 6,4 km/h (2 Bft) 100,00 %
30.04.2020 03:12 10,2 C 8,9 C 8,3 C 92 % 1002,5 hPa 0,0 l/m 0 min 0 min 0 W/m 6,4 km/h (2 Bft) 100,00 %
30.04.2020 03:14 10,2 C 8,9 C 8,3 C 92 % 1002,5 hPa 0,0 l/m 0 min 0 min 0 W/m 6,4 km/h (2 Bft) 100,00 %
30.04.2020 03:16 10,2 C 8,9 C 8,3 C 93 % 1002,5 hPa 0,0 l/m 0 min 0 min 0 W/m 12,9 km/h (3 Bft) 100,00 %
30.04.2020 03:18 10,2 C 8,9 C 8,3 C 92 % 1002,5 hPa 0,0 l/m 0 min 0 min 0 W/m 6,4 km/h (2 Bft) 97,87 %
30.04.2020 03:20 10,2 C 8,9 C 8,3 C 92 % 1002,4 hPa 0,0 l/m 0 min 0 min 0 W/m 6,4 km/h (2 Bft) 97,87 %
30.04.2020 03:22 10,2 C 8,9 C 8,3 C 93 % 1002,5 hPa 0,0 l/m 0 min 0 min 0 W/m 12,9 km/h (3 Bft) 97,87 %
30.04.2020 03:24 10,2 C 8,9 C 8,3 C 93 % 1002,4 hPa 0,0 l/m 0 min 0 min 0 W/m 0,0 km/h (0 Bft) 100,00 %
30.04.2020 03:26 10,2 C 8,9 C 8,3 C 93 % 1002,4 hPa 0,0 l/m 0 min 0 min 0 W/m 6,4 km/h (2 Bft) 95,74 %
30.04.2020 03:28 10,2 C 8,9 C 8,3 C 93 % 1002,4 hPa 0,0 l/m 0 min 0 min 0 W/m 3,2 km/h (1 Bft) 100,00 %
30.04.2020 03:30 10,2 C 8,9 C 8,3 C 93 % 1002,4 hPa 0,0 l/m 0 min 0 min 0 W/m 3,2 km/h (1 Bft) 100,00 %
30.04.2020 03:32 10,2 C 8,9 C 8,3 C 93 % 1002,4 hPa 0,0 l/m 0 min 0 min 0 W/m 3,2 km/h (1 Bft) 100,00 %
30.04.2020 03:34 10,1 C 8,9 C 8,3 C 93 % 1002,3 hPa 0,0 l/m 0 min 0 min 0 W/m 3,2 km/h (1 Bft) 100,00 %
30.04.2020 03:36 10,1 C 8,9 C 8,3 C 93 % 1002,4 hPa 0,0 l/m 0 min 0 min 0 W/m 3,2 km/h (1 Bft) 100,00 %
30.04.2020 03:38 10,1 C 8,9 C 8,3 C 93 % 1002,4 hPa 0,0 l/m 0 min 0 min 0 W/m 6,4 km/h (2 Bft) 100,00 %
30.04.2020 03:40 10,1 C 8,9 C 8,3 C 93 % 1002,3 hPa 0,0 l/m 0 min 0 min 0 W/m 6,4 km/h (2 Bft) 100,00 %
30.04.2020 03:42 10,1 C 8,9 C 8,3 C 93 % 1002,3 hPa 0,0 l/m 0 min 0 min 0 W/m 3,2 km/h (1 Bft) 97,87 %
30.04.2020 03:44 10,1 C 8,9 C 8,3 C 93 % 1002,3 hPa 0,0 l/m 0 min 0 min 0 W/m 12,9 km/h (3 Bft) 95,74 %
30.04.2020 03:46 10,1 C 8,9 C 8,3 C 93 % 1002,2 hPa 0,0 l/m 0 min 0 min 0 W/m 12,9 km/h (3 Bft) 100,00 %
30.04.2020 03:48 10,1 C 8,9 C 8,3 C 93 % 1002,2 hPa 0,0 l/m 0 min 0 min 0 W/m 16,1 km/h (3 Bft) 100,00 %
30.04.2020 03:50 10,1 C 8,9 C 8,3 C 93 % 1002,2 hPa 0,0 l/m 0 min 0 min 0 W/m 6,4 km/h (2 Bft) 100,00 %
30.04.2020 03:52 10,1 C 8,9 C 8,3 C 93 % 1002,2 hPa 0,0 l/m 0 min 0 min 0 W/m 3,2 km/h (1 Bft) 95,74 %
30.04.2020 03:54 10,1 C 8,9 C 8,3 C 93 % 1002,1 hPa 0,0 l/m 0 min 0 min 0 W/m 0,0 km/h (0 Bft) 95,74 %
30.04.2020 03:56 10,1 C 8,9 C 8,3 C 94 % 1002,1 hPa 0,0 l/m 0 min 0 min 0 W/m 3,2 km/h (1 Bft) 93,62 %
30.04.2020 03:58 10,1 C 8,9 C 8,3 C 94 % 1002,1 hPa 0,0 l/m 0 min 0 min 0 W/m 0,0 km/h (0 Bft) 91,49 %
30.04.2020 04:00 10,1 C 8,9 C 8,3 C 94 % 1002,1 hPa 0,0 l/m 0 min 0 min 0 W/m 6,4 km/h (2 Bft) 97,87 %
30.04.2020 04:02 10,1 C 8,9 C 8,3 C 94 % 1002,1 hPa 0,0 l/m 0 min 0 min 0 W/m 0,0 km/h (0 Bft) 100,00 %
30.04.2020 04:04 10,1 C 8,9 C 8,3 C 94 % 1002,0 hPa 0,0 l/m 0 min 0 min 0 W/m 0,0 km/h (0 Bft) 95,74 %
30.04.2020 04:06 10,1 C 8,9 C 8,3 C 94 % 1002,0 hPa 0,0 l/m 0 min 0 min 0 W/m 0,0 km/h (0 Bft) 95,74 %
30.04.2020 04:08 10,1 C 8,9 C 8,3 C 94 % 1002,0 hPa 0,0 l/m 0 min 0 min 0 W/m 0,0 km/h (0 Bft) 95,74 %
30.04.2020 04:10 10,1 C 8,9 C 8,3 C 94 % 1001,9 hPa 0,0 l/m 0 min 0 min 0 W/m 3,2 km/h (1 Bft) 95,74 %
30.04.2020 04:12 10,1 C 8,3 C 8,3 C 94 % 1001,9 hPa 0,0 l/m 0 min 0 min 0 W/m 0,0 km/h (0 Bft) 95,74 %
30.04.2020 04:14 10,1 C 8,9 C 8,3 C 94 % 1001,9 hPa 0,0 l/m 0 min 0 min 0 W/m 6,4 km/h (2 Bft) 93,48 %
30.04.2020 04:16 10,1 C 8,9 C 8,3 C 94 % 1001,9 hPa 0,0 l/m 0 min 2 min 0 W/m 6,4 km/h (2 Bft) 95,74 %
30.04.2020 04:18 10,1 C 8,3 C 8,3 C 94 % 1001,8 hPa 0,0 l/m 0 min 0 min 0 W/m 0,0 km/h (0 Bft) 55,32 %
30.04.2020 04:20 10,1 C 8,3 C 8,3 C 94 % 1001,8 hPa 0,0 l/m 0 min 2 min 0 W/m 16,1 km/h (3 Bft) 90,91 %
30.04.2020 04:22 10,0 C 8,3 C 8,3 C 94 % 1001,7 hPa 0,0 l/m 0 min 2 min 0 W/m 3,2 km/h (1 Bft) 95,74 %
30.04.2020 04:24 10,0 C 8,3 C 8,3 C 94 % 1001,7 hPa 0,0 l/m 0 min 2 min 0 W/m 6,4 km/h (2 Bft) 95,74 %
30.04.2020 04:26 10,0 C 8,3 C 8,3 C 94 % 1001,7 hPa 0,0 l/m 0 min 2 min 0 W/m 6,4 km/h (2 Bft) 93,48 %
30.04.2020 04:28 10,0 C 8,3 C 8,3 C 94 % 1001,7 hPa 0,0 l/m 0 min 2 min 0 W/m 3,2 km/h (1 Bft) 95,74 %
30.04.2020 04:30 10,0 C 8,3 C 8,3 C 94 % 1001,7 hPa 0,0 l/m 0 min 2 min 0 W/m 3,2 km/h (1 Bft) 93,62 %
30.04.2020 04:32 10,0 C 8,3 C 8,3 C 94 % 1001,6 hPa 0,0 l/m 0 min 0 min 0 W/m 3,2 km/h (1 Bft) 91,49 %
30.04.2020 04:34 9,9 C 8,3 C 8,3 C 94 % 1001,6 hPa 0,0 l/m 0 min 2 min 0 W/m 3,2 km/h (1 Bft) 95,74 %
30.04.2020 04:36 9,9 C 8,3 C 8,3 C 94 % 1001,6 hPa 0,0 l/m 0 min 0 min 0 W/m 3,2 km/h (1 Bft) 97,87 %
30.04.2020 04:38 9,9 C 8,3 C 7,8 C 94 % 1001,6 hPa 0,0 l/m 0 min 0 min 0 W/m 0,0 km/h (0 Bft) 97,83 %
30.04.2020 04:40 9,9 C 8,3 C 8,3 C 94 % 1001,5 hPa 0,0 l/m 0 min 0 min 0 W/m 3,2 km/h (1 Bft) 97,87 %
30.04.2020 04:42 9,9 C 8,3 C 7,8 C 94 % 1001,5 hPa 0,0 l/m 0 min 2 min 0 W/m 0,0 km/h (0 Bft) 97,87 %
30.04.2020 04:44 9,9 C 8,3 C 8,3 C 94 % 1001,5 hPa 0,0 l/m 0 min 2 min 0 W/m 3,2 km/h (1 Bft) 97,87 %
30.04.2020 04:46 9,9 C 8,3 C 8,3 C 94 % 1001,5 hPa 0,0 l/m 0 min 2 min 0 W/m 3,2 km/h (1 Bft) 95,74 %
30.04.2020 04:48 9,9 C 8,3 C 8,3 C 94 % 1001,5 hPa 0,0 l/m 0 min 0 min 0 W/m 12,9 km/h (3 Bft) 97,87 %
30.04.2020 04:50 9,9 C 8,3 C 8,3 C 94 % 1001,4 hPa 0,0 l/m 0 min 2 min 0 W/m 16,1 km/h (3 Bft) 97,83 %
30.04.2020 04:52 9,9 C 8,3 C 8,3 C 94 % 1001,5 hPa 0,0 l/m 0 min 2 min 0 W/m 6,4 km/h (2 Bft) 97,87 %
30.04.2020 04:54 9,9 C 8,3 C 8,3 C 94 % 1001,4 hPa 0,0 l/m 0 min 2 min 0 W/m 6,4 km/h (2 Bft) 97,87 %
30.04.2020 04:56 9,9 C 8,3 C 8,3 C 94 % 1001,4 hPa 0,0 l/m 0 min 0 min 0 W/m 3,2 km/h (1 Bft) 95,74 %
30.04.2020 04:58 9,9 C 8,3 C 8,3 C 94 % 1001,4 hPa 0,0 l/m 0 min 0 min 0 W/m 6,4 km/h (2 Bft) 97,87 %
30.04.2020 05:00 9,9 C 8,3 C 8,3 C 94 % 1001,3 hPa 0,0 l/m 0 min 0 min 0 W/m 3,2 km/h (1 Bft) 97,87 %
30.04.2020 05:02 9,9 C 8,3 C 8,3 C 94 % 1001,3 hPa 0,0 l/m 0 min 2 min 0 W/m 3,2 km/h (1 Bft) 95,65 %
30.04.2020 05:04 9,9 C 8,3 C 8,3 C 94 % 1001,3 hPa 0,0 l/m 0 min 2 min 0 W/m 3,2 km/h (1 Bft) 95,74 %
30.04.2020 05:06 9,9 C 8,3 C 8,3 C 94 % 1001,2 hPa 0,0 l/m 0 min 2 min 0 W/m 0,0 km/h (0 Bft) 97,87 %
30.04.2020 05:08 9,9 C 8,3 C 8,3 C 94 % 1001,2 hPa 0,0 l/m 0 min 0 min 0 W/m 12,9 km/h (3 Bft) 100,00 %
30.04.2020 05:10 9,9 C 8,3 C 8,3 C 94 % 1001,2 hPa 0,0 l/m 0 min 0 min 0 W/m 3,2 km/h (1 Bft) 93,62 %
30.04.2020 05:12 9,9 C 8,3 C 7,8 C 94 % 1001,2 hPa 0,0 l/m 0 min 0 min 0 W/m 6,4 km/h (2 Bft) 95,65 %
30.04.2020 05:14 9,9 C 8,3 C 7,8 C 94 % 1001,2 hPa 0,0 l/m 0 min 0 min 0 W/m 6,4 km/h (2 Bft) 100,00 %
30.04.2020 05:16 9,9 C 8,3 C 7,8 C 94 % 1001,2 hPa 0,0 l/m 0 min 0 min 0 W/m 0,0 km/h (0 Bft) 97,87 %
30.04.2020 05:18 9,9 C 8,3 C 7,8 C 94 % 1001,1 hPa 0,0 l/m 0 min 0 min 0 W/m 6,4 km/h (2 Bft) 97,87 %
30.04.2020 05:20 9,8 C 8,3 C 7,8 C 94 % 1001,1 hPa 0,0 l/m 0 min 0 min 0 W/m 6,4 km/h (2 Bft) 95,74 %
30.04.2020 05:22 9,9 C 8,3 C 8,3 C 94 % 1001,0 hPa 0,0 l/m 0 min 2 min 0 W/m 6,4 km/h (2 Bft) 95,74 %
30.04.2020 05:24 9,9 C 8,3 C 7,8 C 94 % 1001,0 hPa 0,0 l/m 0 min 0 min 0 W/m 12,9 km/h (3 Bft) 97,83 %
30.04.2020 05:26 9,8 C 8,3 C 8,3 C 95 % 1001,0 hPa 0,0 l/m 0 min 0 min 0 W/m 3,2 km/h (1 Bft) 97,87 %
30.04.2020 05:28 9,9 C 8,3 C 8,3 C 95 % 1001,0 hPa 0,0 l/m 0 min 0 min 0 W/m 6,4 km/h (2 Bft) 97,87 %
30.04.2020 05:30 9,9 C 8,3 C 8,3 C 95 % 1000,9 hPa 0,0 l/m 0 min 0 min 0 W/m 16,1 km/h (3 Bft) 97,87 %
30.04.2020 05:32 9,9 C 8,3 C 8,3 C 95 % 1000,9 hPa 0,0 l/m 0 min 0 min 0 W/m 19,3 km/h (3 Bft) 95,74 %
30.04.2020 05:34 9,8 C 8,3 C 8,3 C 95 % 1000,9 hPa 0,0 l/m 0 min 0 min 0 W/m 12,9 km/h (3 Bft) 97,87 %
30.04.2020 05:36 9,9 C 8,3 C 8,3 C 95 % 1000,9 hPa 0,0 l/m 0 min 0 min 0 W/m 16,1 km/h (3 Bft) 97,83 %
30.04.2020 05:38 9,9 C 8,3 C 8,3 C 95 % 1000,9 hPa 0,0 l/m 0 min 2 min 0 W/m 19,3 km/h (3 Bft) 95,74 %
30.04.2020 05:40 9,9 C 8,3 C 8,3 C 95 % 1000,9 hPa 0,0 l/m 0 min 2 min 0 W/m 6,4 km/h (2 Bft) 97,87 %
30.04.2020 05:42 9,9 C 8,3 C 8,3 C 95 % 1000,8 hPa 0,0 l/m 0 min 2 min 0 W/m 3,2 km/h (1 Bft) 95,74 %
30.04.2020 05:44 9,9 C 8,3 C 8,3 C 95 % 1000,9 hPa 0,0 l/m 0 min 2 min 0 W/m 19,3 km/h (3 Bft) 97,87 %
30.04.2020 05:46 9,9 C 8,3 C 8,3 C 95 % 1000,8 hPa 0,0 l/m 0 min 0 min 0 W/m 6,4 km/h (2 Bft) 97,87 %
30.04.2020 05:48 9,9 C 8,3 C 8,3 C 95 % 1000,8 hPa 0,0 l/m 0 min 0 min 0 W/m 16,1 km/h (3 Bft) 97,83 %
30.04.2020 05:50 9,9 C 8,3 C 8,3 C 95 % 1000,8 hPa 0,0 l/m 0 min 2 min 0 W/m 12,9 km/h (3 Bft) 97,87 %
30.04.2020 05:52 9,9 C 8,3 C 8,3 C 95 % 1000,8 hPa 0,0 l/m 0 min 0 min 0 W/m 6,4 km/h (2 Bft) 97,87 %
30.04.2020 05:54 9,9 C 8,3 C 8,3 C 95 % 1000,8 hPa 0,0 l/m 0 min 2 min 0 W/m 12,9 km/h (3 Bft) 97,87 %
30.04.2020 05:56 9,9 C 8,3 C 8,3 C 95 % 1000,7 hPa 0,0 l/m 0 min 0 min 0 W/m 19,3 km/h (3 Bft) 97,87 %
30.04.2020 05:58 9,9 C 8,9 C 8,3 C 95 % 1000,7 hPa 0,0 l/m 0 min 0 min 0 W/m 16,1 km/h (3 Bft) 97,87 %
30.04.2020 06:00 9,9 C 8,3 C 8,3 C 95 % 1000,7 hPa 0,0 l/m 0 min 0 min 0 W/m 16,1 km/h (3 Bft) 100,00 %
30.04.2020 06:02 9,9 C 8,9 C 8,3 C 95 % 1000,7 hPa 0,0 l/m 0 min 0 min 0 W/m 6,4 km/h (2 Bft) 97,87 %
30.04.2020 06:04 9,9 C 8,9 C 8,3 C 95 % 1000,7 hPa 0,0 l/m 0 min 0 min 0 W/m 3,2 km/h (1 Bft) 97,87 %
30.04.2020 06:08 9,9 C 8,9 C 8,3 C 95 % 1000,7 hPa 0,0 l/m 0 min 0 min 0 W/m 16,1 km/h (3 Bft) 98,94 %
30.04.2020 06:10 9,9 C 8,9 C 8,3 C 95 % 1000,8 hPa 0,0 l/m 0 min 2 min 0 W/m 12,9 km/h (3 Bft) 93,48 %
30.04.2020 06:12 9,9 C 8,9 C 8,3 C 95 % 1000,7 hPa 0,0 l/m 0 min 0 min 0 W/m 16,1 km/h (3 Bft) 97,87 %
30.04.2020 06:14 9,9 C 8,9 C 8,3 C 95 % 1000,7 hPa 0,0 l/m 0 min 2 min 0 W/m 12,9 km/h (3 Bft) 100,00 %
30.04.2020 06:16 9,9 C 8,9 C 8,3 C 95 % 1000,7 hPa 0,0 l/m 0 min 0 min 0 W/m 12,9 km/h (3 Bft) 95,74 %
30.04.2020 06:18 10,0 C 8,9 C 8,3 C 95 % 1000,7 hPa 0,0 l/m 0 min 0 min 0 W/m 6,4 km/h (2 Bft) 95,74 %
30.04.2020 06:20 10,0 C 8,9 C 8,9 C 95 % 1000,7 hPa 0,0 l/m 0 min 0 min 0 W/m 12,9 km/h (3 Bft) 97,87 %
30.04.2020 06:22 10,0 C 8,9 C 8,9 C 95 % 1000,6 hPa 0,0 l/m 0 min 0 min 4 W/m 6,4 km/h (2 Bft) 97,83 %
30.04.2020 06:24 10,1 C 8,9 C 8,9 C 95 % 1000,6 hPa 0,0 l/m 0 min 0 min 5 W/m 19,3 km/h (3 Bft) 97,87 %
30.04.2020 06:26 10,1 C 8,9 C 8,9 C 95 % 1000,6 hPa 0,0 l/m 0 min 0 min 5 W/m 6,4 km/h (2 Bft) 93,62 %
30.04.2020 06:28 10,1 C 8,9 C 8,9 C 95 % 1000,6 hPa 0,0 l/m 0 min 0 min 6 W/m 12,9 km/h (3 Bft) 97,87 %
30.04.2020 06:30 10,1 C 8,9 C 8,9 C 95 % 1000,6 hPa 0,0 l/m 0 min 0 min 7 W/m 6,4 km/h (2 Bft) 97,87 %
30.04.2020 06:32 10,1 C 9,4 C 8,9 C 95 % 1000,8 hPa 0,0 l/m 0 min 0 min 8 W/m 12,9 km/h (3 Bft) 97,87 %
30.04.2020 06:34 10,1 C 9,4 C 8,9 C 95 % 1000,7 hPa 0,0 l/m 0 min 0 min 9 W/m 16,1 km/h (3 Bft) 97,83 %
30.04.2020 06:36 10,1 C 9,4 C 8,9 C 95 % 1000,7 hPa 0,0 l/m 0 min 0 min 9 W/m 12,9 km/h (3 Bft) 97,87 %
30.04.2020 06:38 10,1 C 9,4 C 8,9 C 95 % 1000,7 hPa 0,0 l/m 0 min 0 min 9 W/m 16,1 km/h (3 Bft) 97,87 %
30.04.2020 06:40 10,1 C 9,4 C 8,9 C 95 % 1000,8 hPa 0,0 l/m 0 min 0 min 10 W/m 12,9 km/h (3 Bft) 97,87 %
30.04.2020 06:42 10,1 C 9,4 C 8,9 C 95 % 1000,8 hPa 0,0 l/m 0 min 0 min 9 W/m 16,1 km/h (3 Bft) 97,87 %
30.04.2020 06:44 10,2 C 9,4 C 8,9 C 95 % 1000,8 hPa 0,0 l/m 0 min 0 min 10 W/m 3,2 km/h (1 Bft) 95,74 %
30.04.2020 06:46 10,2 C 9,4 C 8,9 C 94 % 1000,7 hPa 0,0 l/m 0 min 0 min 11 W/m 6,4 km/h (2 Bft) 97,83 %
30.04.2020 06:48 10,2 C 9,4 C 8,9 C 94 % 1000,7 hPa 0,0 l/m 0 min 0 min 11 W/m 9,7 km/h (2 Bft) 95,74 %
30.04.2020 06:50 10,2 C 9,4 C 8,9 C 94 % 1000,7 hPa 0,0 l/m 0 min 0 min 12 W/m 12,9 km/h (3 Bft) 97,87 %
30.04.2020 06:52 10,2 C 9,4 C 8,9 C 94 % 1000,7 hPa 0,0 l/m 0 min 0 min 11 W/m 6,4 km/h (2 Bft) 95,74 %
30.04.2020 06:54 10,2 C 9,4 C 8,9 C 94 % 1000,8 hPa 0,0 l/m 0 min 0 min 11 W/m 12,9 km/h (3 Bft) 97,87 %
30.04.2020 06:56 10,2 C 9,4 C 8,9 C 94 % 1000,8 hPa 0,0 l/m 0 min 0 min 11 W/m 12,9 km/h (3 Bft) 97,83 %
30.04.2020 06:58 10,2 C 9,4 C 8,9 C 94 % 1000,8 hPa 0,0 l/m 0 min 0 min 10 W/m 3,2 km/h (1 Bft) 97,87 %
30.04.2020 07:00 10,2 C 9,4 C 8,9 C 94 % 1000,8 hPa 0,0 l/m 0 min 0 min 11 W/m 3,2 km/h (1 Bft) 100,00 %
30.04.2020 07:02 10,2 C 9,4 C 8,9 C 94 % 1000,9 hPa 0,0 l/m 0 min 0 min 12 W/m 6,4 km/h (2 Bft) 100,00 %
30.04.2020 07:04 10,3 C 9,4 C 8,9 C 94 % 1000,8 hPa 0,0 l/m 0 min 0 min 12 W/m 16,1 km/h (3 Bft) 100,00 %
30.04.2020 07:06 10,3 C 9,4 C 8,9 C 94 % 1000,8 hPa 0,0 l/m 0 min 0 min 13 W/m 12,9 km/h (3 Bft) 100,00 %
30.04.2020 07:08 10,3 C 9,4 C 8,9 C 94 % 1000,9 hPa 0,0 l/m 0 min 0 min 13 W/m 19,3 km/h (3 Bft) 100,00 %
30.04.2020 07:10 10,3 C 9,4 C 8,9 C 94 % 1000,8 hPa 0,0 l/m 0 min 0 min 12 W/m 19,3 km/h (3 Bft) 100,00 %
30.04.2020 07:12 10,3 C 9,4 C 8,9 C 94 % 1000,8 hPa 0,0 l/m 0 min 0 min 12 W/m 12,9 km/h (3 Bft) 100,00 %
30.04.2020 07:14 10,3 C 9,4 C 8,9 C 94 % 1000,8 hPa 0,0 l/m 0 min 0 min 14 W/m 16,1 km/h (3 Bft) 100,00 %
30.04.2020 07:16 10,3 C 9,4 C 8,9 C 94 % 1000,8 hPa 0,0 l/m 0 min 0 min 17 W/m 25,7 km/h (4 Bft) 100,00 %
30.04.2020 07:18 10,3 C 10,0 C 8,9 C 94 % 1000,8 hPa 0,0 l/m 0 min 0 min 21 W/m 12,9 km/h (3 Bft) 100,00 %
30.04.2020 07:20 10,3 C 10,0 C 8,9 C 94 % 1000,8 hPa 0,0 l/m 0 min 0 min 30 W/m 12,9 km/h (3 Bft) 97,83 %
30.04.2020 07:22 10,4 C 10,0 C 8,9 C 94 % 1000,8 hPa 0,0 l/m 0 min 0 min 38 W/m 12,9 km/h (3 Bft) 100,00 %
30.04.2020 07:24 10,4 C 10,0 C 9,4 C 94 % 1000,8 hPa 0,0 l/m 0 min 0 min 45 W/m 3,2 km/h (1 Bft) 100,00 %
30.04.2020 07:26 10,4 C 10,0 C 9,4 C 94 % 1000,8 hPa 0,0 l/m 0 min 0 min 47 W/m 16,1 km/h (3 Bft) 100,00 %
30.04.2020 07:28 10,4 C 10,0 C 9,4 C 94 % 1000,9 hPa 0,0 l/m 0 min 0 min 40 W/m 16,1 km/h (3 Bft) 100,00 %
30.04.2020 07:30 10,5 C 10,0 C 9,4 C 94 % 1000,9 hPa 0,0 l/m 0 min 0 min 43 W/m 22,5 km/h (4 Bft) 100,00 %
30.04.2020 07:32 10,5 C 10,0 C 9,4 C 94 % 1000,9 hPa 0,0 l/m 0 min 0 min 44 W/m 16,1 km/h (3 Bft) 100,00 %
30.04.2020 07:34 10,5 C 10,0 C 9,4 C 94 % 1000,9 hPa 0,0 l/m 0 min 0 min 45 W/m 12,9 km/h (3 Bft) 100,00 %
30.04.2020 07:36 10,6 C 10,6 C 9,4 C 94 % 1000,9 hPa 0,0 l/m 0 min 0 min 53 W/m 12,9 km/h (3 Bft) 100,00 %
30.04.2020 07:38 10,6 C 10,6 C 9,4 C 94 % 1000,9 hPa 0,0 l/m 0 min 0 min 53 W/m 12,9 km/h (3 Bft) 100,00 %
30.04.2020 07:40 10,6 C 10,6 C 9,4 C 94 % 1000,9 hPa 0,0 l/m 0 min 0 min 51 W/m 16,1 km/h (3 Bft) 100,00 %
30.04.2020 07:42 10,6 C 10,6 C 9,4 C 94 % 1000,9 hPa 0,0 l/m 0 min 0 min 52 W/m 19,3 km/h (3 Bft) 100,00 %
30.04.2020 07:44 10,6 C 10,6 C 9,4 C 94 % 1000,9 hPa 0,0 l/m 0 min 0 min 43 W/m 6,4 km/h (2 Bft) 100,00 %
30.04.2020 07:46 10,6 C 10,6 C 9,4 C 94 % 1000,9 hPa 0,0 l/m 0 min 0 min 34 W/m 12,9 km/h (3 Bft) 97,87 %
30.04.2020 07:48 10,6 C 10,6 C 9,4 C 94 % 1000,9 hPa 0,0 l/m 0 min 0 min 35 W/m 16,1 km/h (3 Bft) 100,00 %
30.04.2020 07:50 10,7 C 10,6 C 9,4 C 93 % 1000,9 hPa 0,0 l/m 0 min 0 min 36 W/m 16,1 km/h (3 Bft) 100,00 %
30.04.2020 07:52 10,7 C 10,6 C 9,4 C 93 % 1001,0 hPa 0,0 l/m 0 min 0 min 44 W/m 22,5 km/h (4 Bft) 100,00 %
30.04.2020 07:54 10,7 C 10,6 C 9,4 C 93 % 1001,0 hPa 0,0 l/m 0 min 0 min 46 W/m 16,1 km/h (3 Bft) 97,83 %
30.04.2020 07:56 10,7 C 10,6 C 9,4 C 93 % 1001,0 hPa 0,0 l/m 0 min 0 min 42 W/m 19,3 km/h (3 Bft) 100,00 %
30.04.2020 07:58 10,7 C 10,6 C 9,4 C 93 % 1001,1 hPa 0,0 l/m 0 min 0 min 46 W/m 12,9 km/h (3 Bft) 100,00 %
30.04.2020 08:00 10,7 C 10,6 C 9,4 C 93 % 1001,0 hPa 0,0 l/m 0 min 0 min 48 W/m 16,1 km/h (3 Bft) 100,00 %
30.04.2020 08:02 10,7 C 10,6 C 9,4 C 93 % 1001,0 hPa 0,0 l/m 0 min 0 min 46 W/m 12,9 km/h (3 Bft) 100,00 %
30.04.2020 08:04 10,7 C 10,6 C 9,4 C 93 % 1001,0 hPa 0,0 l/m 0 min 0 min 51 W/m 22,5 km/h (4 Bft) 100,00 %
30.04.2020 08:06 10,7 C 10,6 C 9,4 C 93 % 1001,0 hPa 0,0 l/m 0 min 0 min 51 W/m 19,3 km/h (3 Bft) 100,00 %
30.04.2020 08:08 10,8 C 10,6 C 9,4 C 93 % 1001,0 hPa 0,0 l/m 0 min 0 min 47 W/m 16,1 km/h (3 Bft) 97,83 %
30.04.2020 08:10 10,8 C 10,6 C 9,4 C 93 % 1001,1 hPa 0,0 l/m 0 min 0 min 54 W/m 12,9 km/h (3 Bft) 95,74 %
30.04.2020 08:12 10,8 C 10,6 C 9,4 C 93 % 1001,1 hPa 0,0 l/m 0 min 0 min 66 W/m 12,9 km/h (3 Bft) 97,87 %
30.04.2020 08:14 10,8 C 10,6 C 9,4 C 92 % 1001,1 hPa 0,0 l/m 0 min 0 min 72 W/m 6,4 km/h (2 Bft) 95,74 %
30.04.2020 08:16 10,8 C 10,6 C 10,0 C 92 % 1001,2 hPa 0,0 l/m 0 min 0 min 95 W/m 19,3 km/h (3 Bft) 93,62 %
30.04.2020 08:18 10,8 C 11,1 C 10,0 C 92 % 1001,1 hPa 0,0 l/m 0 min 0 min 100 W/m 12,9 km/h (3 Bft) 95,65 %
30.04.2020 08:20 10,9 C 11,1 C 10,0 C 92 % 1001,1 hPa 0,0 l/m 0 min 0 min 93 W/m 12,9 km/h (3 Bft) 95,74 %
30.04.2020 08:22 10,9 C 10,6 C 10,0 C 92 % 1001,1 hPa 0,0 l/m 0 min 0 min 76 W/m 32,2 km/h (5 Bft) 95,74 %
30.04.2020 08:24 10,9 C 10,6 C 9,4 C 91 % 1001,2 hPa 0,0 l/m 0 min 2 min 54 W/m 29,0 km/h (5 Bft) 95,74 %
30.04.2020 08:26 10,9 C 10,6 C 9,4 C 91 % 1001,1 hPa 0,0 l/m 0 min 0 min 49 W/m 32,2 km/h (5 Bft) 95,74 %
30.04.2020 08:28 10,9 C 10,6 C 9,4 C 91 % 1001,1 hPa 0,0 l/m 0 min 0 min 71 W/m 19,3 km/h (3 Bft) 95,74 %
30.04.2020 08:30 10,9 C 10,6 C 10,0 C 91 % 1001,1 hPa 0,0 l/m 0 min 0 min 91 W/m 16,1 km/h (3 Bft) 95,65 %
30.04.2020 08:32 11,0 C 11,1 C 10,0 C 90 % 1001,2 hPa 0,0 l/m 0 min 0 min 101 W/m 12,9 km/h (3 Bft) 93,62 %
30.04.2020 08:34 11,0 C 11,1 C 10,0 C 90 % 1001,2 hPa 0,0 l/m 0 min 0 min 138 W/m 16,1 km/h (3 Bft) 95,74 %
30.04.2020 08:36 11,1 C 11,7 C 10,0 C 90 % 1001,2 hPa 0,0 l/m 2 min 0 min 184 W/m 19,3 km/h (3 Bft) 93,62 %
30.04.2020 08:38 11,1 C 12,2 C 10,6 C 90 % 1001,2 hPa 0,0 l/m 2 min 0 min 231 W/m 38,6 km/h (5 Bft) 95,74 %
30.04.2020 08:40 11,2 C 12,2 C 10,6 C 90 % 1001,2 hPa 0,0 l/m 2 min 0 min 224 W/m 12,9 km/h (3 Bft) 95,74 %
30.04.2020 08:42 11,2 C 12,2 C 10,6 C 90 % 1001,1 hPa 0,0 l/m 2 min 0 min 203 W/m 19,3 km/h (3 Bft) 95,65 %
30.04.2020 08:44 11,3 C 12,2 C 10,6 C 90 % 1001,1 hPa 0,0 l/m 2 min 0 min 217 W/m 19,3 km/h (3 Bft) 95,74 %
30.04.2020 08:46 11,3 C 12,8 C 11,1 C 90 % 1001,1 hPa 0,0 l/m 2 min 0 min 211 W/m 16,1 km/h (3 Bft) 93,62 %
30.04.2020 08:48 11,4 C 12,2 C 10,6 C 90 % 1001,0 hPa 0,0 l/m 0 min 0 min 151 W/m 16,1 km/h (3 Bft) 95,74 %
30.04.2020 08:50 11,4 C 11,7 C 10,6 C 90 % 1001,2 hPa 0,0 l/m 0 min 0 min 129 W/m 25,7 km/h (4 Bft) 93,62 %
30.04.2020 08:52 11,4 C 11,1 C 10,0 C 89 % 1001,1 hPa 0,0 l/m 0 min 2 min 126 W/m 19,3 km/h (3 Bft) 91,49 %
30.04.2020 08:54 11,5 C 11,1 C 10,0 C 89 % 1001,3 hPa 0,0 l/m 0 min 2 min 111 W/m 12,9 km/h (3 Bft) 95,65 %
30.04.2020 08:56 11,5 C 11,1 C 10,0 C 89 % 1001,2 hPa 0,0 l/m 0 min 2 min 95 W/m 12,9 km/h (3 Bft) 93,62 %
30.04.2020 08:58 11,5 C 10,6 C 10,0 C 89 % 1001,2 hPa 0,0 l/m 0 min 2 min 97 W/m 25,7 km/h (4 Bft) 95,74 %
30.04.2020 09:00 11,5 C 10,0 C 9,4 C 89 % 1001,3 hPa 0,0 l/m 0 min 2 min 110 W/m 22,5 km/h (4 Bft) 91,49 %
30.04.2020 09:02 11,5 C 10,6 C 10,0 C 89 % 1001,3 hPa 0,0 l/m 0 min 2 min 144 W/m 9,7 km/h (2 Bft) 92,00 %
30.04.2020 09:04 11,5 C 10,6 C 10,0 C 89 % 1001,4 hPa 0,0 l/m 0 min 2 min 171 W/m 22,5 km/h (4 Bft) 97,83 %
30.04.2020 09:06 11,5 C 10,6 C 10,0 C 88 % 1001,4 hPa 0,0 l/m 0 min 2 min 144 W/m 25,7 km/h (4 Bft) 95,74 %
30.04.2020 09:08 11,5 C 10,6 C 10,0 C 89 % 1001,4 hPa 0,0 l/m 0 min 0 min 122 W/m 29,0 km/h (5 Bft) 95,74 %
30.04.2020 09:10 11,5 C 11,1 C 10,0 C 89 % 1001,4 hPa 0,0 l/m 0 min 0 min 116 W/m 16,1 km/h (3 Bft) 97,87 %
30.04.2020 09:12 11,4 C 11,1 C 10,0 C 88 % 1001,4 hPa 0,0 l/m 0 min 0 min 169 W/m 25,7 km/h (4 Bft) 95,74 %
30.04.2020 09:14 11,4 C 11,7 C 10,6 C 89 % 1001,4 hPa 0,0 l/m 0 min 2 min 203 W/m 25,7 km/h (4 Bft) 97,87 %
30.04.2020 09:16 11,4 C 11,7 C 10,6 C 88 % 1001,5 hPa 0,0 l/m 0 min 0 min 152 W/m 25,7 km/h (4 Bft) 95,65 %
30.04.2020 09:18 11,4 C 11,1 C 10,0 C 88 % 1001,4 hPa 0,0 l/m 0 min 0 min 118 W/m 25,7 km/h (4 Bft) 97,87 %
30.04.2020 09:20 11,4 C 11,1 C 10,0 C 88 % 1001,2 hPa 0,0 l/m 0 min 0 min 128 W/m 25,7 km/h (4 Bft) 97,87 %
30.04.2020 09:22 11,4 C 11,7 C 10,6 C 88 % 1001,3 hPa 0,0 l/m 0 min 0 min 163 W/m 19,3 km/h (3 Bft) 95,74 %
30.04.2020 09:24 11,4 C 11,7 C 10,6 C 87 % 1001,3 hPa 0,0 l/m 0 min 0 min 157 W/m 16,1 km/h (3 Bft) 97,87 %
30.04.2020 09:26 11,5 C 11,7 C 10,6 C 87 % 1001,5 hPa 0,0 l/m 0 min 0 min 155 W/m 16,1 km/h (3 Bft) 97,83 %
30.04.2020 09:28 11,5 C 11,7 C 10,6 C 87 % 1001,4 hPa 0,0 l/m 0 min 0 min 151 W/m 16,1 km/h (3 Bft) 97,87 %
30.04.2020 09:30 11,6 C 11,7 C 10,6 C 87 % 1001,5 hPa 0,0 l/m 0 min 0 min 141 W/m 25,7 km/h (4 Bft) 95,74 %
30.04.2020 09:32 11,6 C 11,7 C 10,6 C 87 % 1001,5 hPa 0,0 l/m 0 min 0 min 115 W/m 16,1 km/h (3 Bft) 97,87 %
30.04.2020 09:34 11,6 C 11,7 C 10,6 C 87 % 1001,4 hPa 0,0 l/m 0 min 0 min 117 W/m 9,7 km/h (2 Bft) 97,87 %
30.04.2020 09:36 11,6 C 11,7 C 11,1 C 87 % 1001,6 hPa 0,0 l/m 0 min 0 min 132 W/m 32,2 km/h (5 Bft) 97,87 %
30.04.2020 09:38 11,6 C 11,1 C 11,1 C 86 % 1001,5 hPa 0,0 l/m 0 min 0 min 145 W/m 48,3 km/h (6 Bft) 97,83 %
30.04.2020 09:40 11,6 C 11,7 C 11,1 C 86 % 1001,5 hPa 0,0 l/m 0 min 0 min 175 W/m 41,8 km/h (6 Bft) 97,87 %
30.04.2020 09:42 11,6 C 11,7 C 11,1 C 86 % 1001,5 hPa 0,0 l/m 0 min 0 min 164 W/m 16,1 km/h (3 Bft) 97,87 %
30.04.2020 09:44 11,6 C 11,7 C 11,1 C 86 % 1001,5 hPa 0,0 l/m 0 min 0 min 130 W/m 6,4 km/h (2 Bft) 97,87 %
30.04.2020 09:46 11,6 C 12,2 C 11,7 C 86 % 1001,5 hPa 0,0 l/m 0 min 0 min 139 W/m 22,5 km/h (4 Bft) 97,87 %
30.04.2020 09:48 11,6 C 13,3 C 13,9 C 85 % 1001,7 hPa 0,0 l/m 2 min 0 min 300 W/m 32,2 km/h (5 Bft) 97,87 %
30.04.2020 09:50 11,7 C 13,3 C 13,3 C 85 % 1001,8 hPa 0,0 l/m 2 min 0 min 338 W/m 32,2 km/h (5 Bft) 97,83 %
30.04.2020 09:52 11,8 C 12,8 C 12,8 C 85 % 1001,7 hPa 0,0 l/m 0 min 0 min 238 W/m 29,0 km/h (5 Bft) 100,00 %
30.04.2020 09:54 11,8 C 12,2 C 12,2 C 84 % 1001,7 hPa 0,0 l/m 0 min 0 min 161 W/m 22,5 km/h (4 Bft) 97,87 %
30.04.2020 09:56 11,8 C 12,2 C 11,7 C 84 % 1002,0 hPa 0,0 l/m 0 min 0 min 158 W/m 29,0 km/h (5 Bft) 97,87 %
30.04.2020 09:58 11,8 C 12,2 C 11,7 C 83 % 1001,8 hPa 0,0 l/m 0 min 0 min 184 W/m 29,0 km/h (5 Bft) 100,00 %
30.04.2020 10:00 11,8 C 11,7 C 11,7 C 82 % 1001,8 hPa 0,0 l/m 0 min 0 min 134 W/m 22,5 km/h (4 Bft) 97,87 %
30.04.2020 10:02 11,8 C 11,7 C 11,1 C 82 % 1001,8 hPa 0,0 l/m 0 min 0 min 118 W/m 29,0 km/h (5 Bft) 100,00 %
30.04.2020 10:04 11,8 C 11,7 C 11,1 C 81 % 1001,9 hPa 0,0 l/m 0 min 0 min 143 W/m 25,7 km/h (4 Bft) 100,00 %
30.04.2020 10:06 11,7 C 12,2 C 11,7 C 80 % 1002,0 hPa 0,0 l/m 0 min 0 min 176 W/m 12,9 km/h (3 Bft) 100,00 %
30.04.2020 10:08 11,8 C 13,9 C 13,9 C 80 % 1002,0 hPa 0,0 l/m 0 min 0 min 211 W/m 22,5 km/h (4 Bft) 100,00 %
30.04.2020 10:10 11,8 C 12,8 C 12,8 C 80 % 1002,0 hPa 0,0 l/m 0 min 0 min 188 W/m 6,4 km/h (2 Bft) 100,00 %
30.04.2020 10:12 11,8 C 13,3 C 13,3 C 80 % 1002,0 hPa 0,0 l/m 0 min 0 min 185 W/m 25,7 km/h (4 Bft) 100,00 %
30.04.2020 10:14 11,9 C 13,3 C 13,3 C 79 % 1001,9 hPa 0,0 l/m 0 min 0 min 225 W/m 19,3 km/h (3 Bft) 100,00 %
30.04.2020 10:16 11,9 C 13,3 C 12,8 C 79 % 1002,0 hPa 0,0 l/m 0 min 0 min 247 W/m 16,1 km/h (3 Bft) 100,00 %
30.04.2020 10:18 12,0 C 13,3 C 13,3 C 79 % 1002,0 hPa 0,0 l/m 2 min 0 min 318 W/m 19,3 km/h (3 Bft) 100,00 %
30.04.2020 10:20 12,1 C 15,6 C 16,1 C 79 % 1002,1 hPa 0,0 l/m 2 min 0 min 359 W/m 9,7 km/h (2 Bft) 97,87 %
30.04.2020 10:22 12,2 C 14,4 C 15,0 C 78 % 1002,2 hPa 0,0 l/m 2 min 0 min 610 W/m 19,3 km/h (3 Bft) 100,00 %
30.04.2020 10:24 12,2 C 13,9 C 14,4 C 77 % 1002,2 hPa 0,0 l/m 0 min 0 min 192 W/m 16,1 km/h (3 Bft) 100,00 %
30.04.2020 10:26 12,3 C 13,9 C 13,9 C 77 % 1002,2 hPa 0,0 l/m 0 min 0 min 231 W/m 16,1 km/h (3 Bft) 100,00 %
30.04.2020 10:28 12,3 C 14,4 C 14,4 C 77 % 1002,1 hPa 0,0 l/m 0 min 0 min 264 W/m 19,3 km/h (3 Bft) 100,00 %
30.04.2020 10:30 12,4 C 15,0 C 15,6 C 77 % 1002,2 hPa 0,0 l/m 2 min 0 min 357 W/m 16,1 km/h (3 Bft) 100,00 %
30.04.2020 10:32 12,6 C 16,7 C 17,8 C 77 % 1002,2 hPa 0,0 l/m 2 min 0 min 611 W/m 12,9 km/h (3 Bft) 97,87 %
30.04.2020 10:34 12,7 C 18,9 C 20,0 C 78 % 1002,3 hPa 0,0 l/m 2 min 0 min 874 W/m 12,9 km/h (3 Bft) 100,00 %
30.04.2020 10:36 12,9 C 20,0 C 22,2 C 78 % 1002,3 hPa 0,0 l/m 2 min 0 min 871 W/m 3,2 km/h (1 Bft) 100,00 %
30.04.2020 10:38 13,2 C 20,6 C 22,8 C 79 % 1002,3 hPa 0,0 l/m 2 min 0 min 884 W/m 9,7 km/h (2 Bft) 100,00 %
30.04.2020 10:40 13,4 C 20,6 C 22,8 C 78 % 1002,3 hPa 0,0 l/m 2 min 0 min 896 W/m 9,7 km/h (2 Bft) 100,00 %
30.04.2020 10:42 13,6 C 19,4 C 21,1 C 77 % 1002,3 hPa 0,0 l/m 2 min 0 min 853 W/m 12,9 km/h (3 Bft) 100,00 %
30.04.2020 10:44 13,8 C 17,8 C 18,9 C 75 % 1002,3 hPa 0,0 l/m 2 min 0 min 385 W/m 6,4 km/h (2 Bft) 100,00 %
30.04.2020 10:46 13,9 C 16,7 C 17,2 C 75 % 1002,3 hPa 0,0 l/m 2 min 0 min 327 W/m 9,7 km/h (2 Bft) 100,00 %
30.04.2020 10:48 13,9 C 15,0 C 16,1 C 71 % 1002,3 hPa 0,0 l/m 2 min 0 min 502 W/m 35,4 km/h (5 Bft) 100,00 %
30.04.2020 10:50 13,9 C 14,4 C 15,0 C 70 % 1002,3 hPa 0,0 l/m 2 min 0 min 355 W/m 25,7 km/h (4 Bft) 97,87 %
30.04.2020 10:52 13,9 C 16,1 C 17,2 C 69 % 1002,3 hPa 0,0 l/m 2 min 0 min 431 W/m 16,1 km/h (3 Bft) 97,87 %
30.04.2020 10:54 14,0 C 18,3 C 19,4 C 71 % 1002,3 hPa 0,0 l/m 2 min 0 min 803 W/m 12,9 km/h (3 Bft) 97,87 %
30.04.2020 10:56 14,1 C 19,4 C 21,1 C 71 % 1002,4 hPa 0,0 l/m 2 min 0 min 820 W/m 12,9 km/h (3 Bft) 97,87 %
30.04.2020 10:58 14,3 C 18,3 C 21,1 C 70 % 1002,4 hPa 0,0 l/m 2 min 0 min 855 W/m 22,5 km/h (4 Bft) 97,87 %
30.04.2020 11:00 14,3 C 18,3 C 20,6 C 70 % 1002,4 hPa 0,0 l/m 2 min 0 min 850 W/m 16,1 km/h (3 Bft) 95,65 %
30.04.2020 11:02 14,3 C 18,3 C 20,0 C 69 % 1002,5 hPa 0,0 l/m 2 min 0 min 853 W/m 16,1 km/h (3 Bft) 97,87 %
30.04.2020 11:04 14,4 C 18,9 C 20,6 C 69 % 1002,4 hPa 0,0 l/m 2 min 0 min 897 W/m 12,9 km/h (3 Bft) 97,87 %
30.04.2020 11:06 14,6 C 19,4 C 20,0 C 69 % 1002,4 hPa 0,0 l/m 2 min 0 min 909 W/m 9,7 km/h (2 Bft) 95,74 %
30.04.2020 11:08 14,7 C 20,0 C 20,6 C 69 % 1002,5 hPa 0,0 l/m 2 min 0 min 924 W/m 22,5 km/h (4 Bft) 97,87 %
30.04.2020 11:10 14,7 C 17,2 C 17,8 C 66 % 1002,7 hPa 0,0 l/m 2 min 0 min 916 W/m 48,3 km/h (6 Bft) 95,74 %
30.04.2020 11:12 14,7 C 17,8 C 17,2 C 65 % 1002,5 hPa 0,0 l/m 2 min 0 min 907 W/m 29,0 km/h (5 Bft) 95,65 %
30.04.2020 11:14 14,8 C 17,2 C 16,1 C 65 % 1002,5 hPa 0,0 l/m 2 min 0 min 920 W/m 32,2 km/h (5 Bft) 95,74 %
30.04.2020 11:16 14,7 C 15,6 C 15,0 C 64 % 1002,5 hPa 0,0 l/m 2 min 0 min 923 W/m 45,1 km/h (6 Bft) 93,62 %
30.04.2020 11:18 14,6 C 15,6 C 14,4 C 64 % 1002,6 hPa 0,0 l/m 2 min 0 min 508 W/m 22,5 km/h (4 Bft) 95,74 %
30.04.2020 11:20 14,6 C 18,9 C 15,6 C 67 % 1002,5 hPa 0,0 l/m 2 min 0 min 451 W/m 9,7 km/h (2 Bft) 95,74 %
30.04.2020 11:22 14,6 C 19,4 C 16,1 C 67 % 1002,5 hPa 0,0 l/m 2 min 0 min 958 W/m 16,1 km/h (3 Bft) 95,74 %
30.04.2020 11:24 14,8 C 17,2 C 15,6 C 68 % 1002,5 hPa 0,0 l/m 2 min 0 min 801 W/m 29,0 km/h (5 Bft) 93,48 %
30.04.2020 11:26 14,7 C 17,2 C 15,0 C 65 % 1002,5 hPa 0,0 l/m 0 min 0 min 191 W/m 12,9 km/h (3 Bft) 95,74 %
30.04.2020 11:28 14,7 C 16,1 C 15,0 C 64 % 1002,4 hPa 0,0 l/m 0 min 0 min 200 W/m 19,3 km/h (3 Bft) 95,74 %
30.04.2020 11:30 14,7 C 15,6 C 15,0 C 64 % 1002,5 hPa 0,0 l/m 0 min 0 min 225 W/m 25,7 km/h (4 Bft) 95,74 %
30.04.2020 11:32 14,7 C 15,0 C 14,4 C 65 % 1002,4 hPa 0,0 l/m 0 min 0 min 226 W/m 19,3 km/h (3 Bft) 97,87 %
30.04.2020 11:34 14,6 C 14,4 C 14,4 C 65 % 1002,5 hPa 0,0 l/m 0 min 0 min 230 W/m 25,7 km/h (4 Bft) 97,83 %
30.04.2020 11:36 14,5 C 13,9 C 13,9 C 65 % 1002,5 hPa 0,0 l/m 0 min 0 min 215 W/m 29,0 km/h (5 Bft) 97,87 %
30.04.2020 11:38 14,3 C 13,9 C 13,9 C 65 % 1002,5 hPa 0,0 l/m 0 min 0 min 214 W/m 16,1 km/h (3 Bft) 97,87 %
30.04.2020 11:40 14,3 C 13,9 C 13,9 C 66 % 1002,5 hPa 0,0 l/m 0 min 0 min 205 W/m 6,4 km/h (2 Bft) 93,62 %
30.04.2020 11:42 14,3 C 13,9 C 13,9 C 66 % 1002,5 hPa 0,0 l/m 0 min 0 min 221 W/m 6,4 km/h (2 Bft) 97,87 %
30.04.2020 11:44 14,3 C 16,1 C 13,9 C 67 % 1002,4 hPa 0,0 l/m 0 min 0 min 216 W/m 6,4 km/h (2 Bft) 95,74 %
30.04.2020 11:46 14,3 C 18,3 C 15,0 C 68 % 1002,4 hPa 0,0 l/m 2 min 0 min 973 W/m 12,9 km/h (3 Bft) 97,83 %
30.04.2020 11:48 14,3 C 17,2 C 15,0 C 68 % 1002,4 hPa 0,0 l/m 2 min 0 min 751 W/m 35,4 km/h (5 Bft) 97,87 %
30.04.2020 11:50 14,3 C 15,0 C 14,4 C 66 % 1002,4 hPa 0,0 l/m 2 min 0 min 404 W/m 32,2 km/h (5 Bft) 97,87 %
30.04.2020 11:52 14,3 C 14,4 C 13,9 C 65 % 1002,3 hPa 0,0 l/m 0 min 0 min 183 W/m 38,6 km/h (5 Bft) 97,87 %
30.04.2020 11:54 14,3 C 14,4 C 13,9 C 65 % 1002,3 hPa 0,0 l/m 0 min 0 min 171 W/m 12,9 km/h (3 Bft) 97,87 %
30.04.2020 11:56 14,3 C 15,6 C 14,4 C 67 % 1002,3 hPa 0,0 l/m 0 min 0 min 171 W/m 12,9 km/h (3 Bft) 97,87 %
30.04.2020 11:58 14,3 C 14,4 C 14,4 C 67 % 1002,3 hPa 0,0 l/m 0 min 0 min 232 W/m 12,9 km/h (3 Bft) 97,83 %
30.04.2020 12:00 14,3 C 14,4 C 13,9 C 67 % 1002,2 hPa 0,0 l/m 0 min 0 min 230 W/m 9,7 km/h (2 Bft) 91,49 %
30.04.2020 12:02 14,2 C 14,4 C 13,9 C 68 % 1002,1 hPa 0,0 l/m 0 min 0 min 254 W/m 9,7 km/h (2 Bft) 97,87 %
30.04.2020 12:04 14,2 C 16,7 C 14,4 C 68 % 1002,1 hPa 0,0 l/m 0 min 0 min 363 W/m 16,1 km/h (3 Bft) 93,62 %
30.04.2020 12:08 14,3 C 19,4 C 15,6 C 68 % 1002,0 hPa 0,0 l/m 4 min 0 min 1019 W/m 22,5 km/h (4 Bft) 98,92 %
30.04.2020 12:10 14,4 C 20,6 C 16,1 C 67 % 1002,0 hPa 0,0 l/m 2 min 0 min 1046 W/m 12,9 km/h (3 Bft) 100,00 %
30.04.2020 12:12 14,6 C 17,8 C 16,1 C 66 % 1001,9 hPa 0,0 l/m 2 min 0 min 875 W/m 16,1 km/h (3 Bft) 100,00 %
30.04.2020 12:14 14,7 C 16,7 C 15,6 C 67 % 1002,0 hPa 0,0 l/m 0 min 0 min 304 W/m 16,1 km/h (3 Bft) 100,00 %
30.04.2020 12:16 14,7 C 16,7 C 15,6 C 66 % 1002,1 hPa 0,0 l/m 0 min 0 min 274 W/m 6,4 km/h (2 Bft) 100,00 %
30.04.2020 12:18 14,7 C 16,1 C 15,0 C 65 % 1002,1 hPa 0,0 l/m 0 min 0 min 280 W/m 9,7 km/h (2 Bft) 97,87 %
30.04.2020 12:20 14,7 C 17,8 C 15,6 C 63 % 1002,3 hPa 0,0 l/m 2 min 0 min 594 W/m 29,0 km/h (5 Bft) 97,83 %
30.04.2020 12:22 14,8 C 18,9 C 15,6 C 62 % 1002,2 hPa 0,0 l/m 2 min 0 min 1034 W/m 29,0 km/h (5 Bft) 100,00 %
30.04.2020 12:24 14,9 C 18,9 C 16,1 C 63 % 1002,3 hPa 0,0 l/m 2 min 0 min 1030 W/m 29,0 km/h (5 Bft) 100,00 %
30.04.2020 12:26 15,0 C 18,9 C 16,1 C 61 % 1002,3 hPa 0,0 l/m 2 min 0 min 1082 W/m 38,6 km/h (5 Bft) 100,00 %
30.04.2020 12:28 15,1 C 16,7 C 15,6 C 60 % 1002,4 hPa 0,0 l/m 2 min 0 min 1095 W/m 29,0 km/h (5 Bft) 100,00 %
30.04.2020 12:30 15,2 C 17,8 C 16,1 C 60 % 1002,5 hPa 0,0 l/m 2 min 0 min 1095 W/m 29,0 km/h (5 Bft) 100,00 %
30.04.2020 12:32 15,2 C 17,2 C 15,6 C 60 % 1002,5 hPa 0,0 l/m 2 min 0 min 1095 W/m 32,2 km/h (5 Bft) 100,00 %
30.04.2020 12:34 15,2 C 18,3 C 16,1 C 59 % 1002,5 hPa 0,0 l/m 2 min 0 min 1092 W/m 29,0 km/h (5 Bft) 100,00 %
30.04.2020 12:36 15,3 C 19,4 C 16,1 C 59 % 1002,5 hPa 0,0 l/m 2 min 0 min 1058 W/m 25,7 km/h (4 Bft) 100,00 %
30.04.2020 12:38 15,4 C 20,0 C 16,7 C 58 % 1002,6 hPa 0,0 l/m 2 min 0 min 1073 W/m 38,6 km/h (5 Bft) 100,00 %
30.04.2020 12:40 15,5 C 20,6 C 16,7 C 59 % 1002,4 hPa 0,0 l/m 2 min 0 min 796 W/m 32,2 km/h (5 Bft) 97,87 %
30.04.2020 12:42 15,6 C 17,2 C 16,1 C 56 % 1002,6 hPa 0,0 l/m 2 min 0 min 874 W/m 25,7 km/h (4 Bft) 100,00 %
30.04.2020 12:44 15,6 C 18,3 C 16,1 C 57 % 1002,5 hPa 0,0 l/m 0 min 0 min 343 W/m 19,3 km/h (3 Bft) 100,00 %
30.04.2020 12:46 15,6 C 20,0 C 16,7 C 58 % 1002,5 hPa 0,0 l/m 2 min 0 min 758 W/m 22,5 km/h (4 Bft) 100,00 %
30.04.2020 12:48 15,7 C 20,6 C 16,7 C 58 % 1002,6 hPa 0,0 l/m 2 min 0 min 1050 W/m 32,2 km/h (5 Bft) 100,00 %
30.04.2020 12:50 15,8 C 20,0 C 16,7 C 56 % 1002,8 hPa 0,0 l/m 2 min 0 min 1047 W/m 35,4 km/h (5 Bft) 100,00 %
30.04.2020 12:52 15,9 C 20,0 C 16,7 C 55 % 1002,5 hPa 0,0 l/m 2 min 0 min 1041 W/m 38,6 km/h (5 Bft) 100,00 %
30.04.2020 12:54 16,0 C 19,4 C 16,7 C 55 % 1002,5 hPa 0,0 l/m 2 min 0 min 1020 W/m 32,2 km/h (5 Bft) 100,00 %
30.04.2020 12:56 16,1 C 18,9 C 16,1 C 56 % 1002,6 hPa 0,0 l/m 2 min 0 min 989 W/m 38,6 km/h (5 Bft) 100,00 %
30.04.2020 12:58 16,2 C 20,0 C 16,7 C 57 % 1002,4 hPa 0,0 l/m 2 min 0 min 972 W/m 25,7 km/h (4 Bft) 100,00 %
30.04.2020 13:00 16,2 C 20,0 C 16,7 C 57 % 1002,5 hPa 0,0 l/m 2 min 0 min 964 W/m 38,6 km/h (5 Bft) 100,00 %
30.04.2020 13:02 16,3 C 20,0 C 16,7 C 57 % 1002,4 hPa 0,0 l/m 2 min 0 min 973 W/m 32,2 km/h (5 Bft) 100,00 %
30.04.2020 13:04 16,3 C 18,9 C 16,7 C 56 % 1002,5 hPa 0,0 l/m 2 min 0 min 979 W/m 45,1 km/h (6 Bft) 100,00 %
30.04.2020 13:06 16,3 C 18,9 C 16,1 C 55 % 1002,4 hPa 0,0 l/m 2 min 0 min 966 W/m 29,0 km/h (5 Bft) 95,74 %
30.04.2020 13:08 16,3 C 18,9 C 16,1 C 54 % 1002,6 hPa 0,0 l/m 2 min 0 min 966 W/m 38,6 km/h (5 Bft) 100,00 %
30.04.2020 13:10 16,3 C 19,4 C 16,7 C 55 % 1002,4 hPa 0,0 l/m 2 min 0 min 960 W/m 22,5 km/h (4 Bft) 100,00 %
30.04.2020 13:12 16,3 C 18,3 C 16,7 C 55 % 1002,4 hPa 0,0 l/m 2 min 0 min 895 W/m 12,9 km/h (3 Bft) 100,00 %
30.04.2020 13:14 16,3 C 18,9 C 16,7 C 55 % 1002,4 hPa 0,0 l/m 2 min 0 min 484 W/m 25,7 km/h (4 Bft) 97,87 %
30.04.2020 13:16 16,3 C 17,2 C 16,1 C 55 % 1002,3 hPa 0,0 l/m 0 min 0 min 367 W/m 19,3 km/h (3 Bft) 93,62 %
30.04.2020 13:18 16,2 C 17,8 C 16,7 C 56 % 1002,3 hPa 0,0 l/m 0 min 0 min 241 W/m 22,5 km/h (4 Bft) 97,87 %
30.04.2020 13:20 16,2 C 19,4 C 17,2 C 56 % 1002,2 hPa 0,0 l/m 2 min 0 min 1007 W/m 19,3 km/h (3 Bft) 97,83 %
30.04.2020 13:22 16,2 C 21,1 C 18,9 C 58 % 1002,2 hPa 0,0 l/m 2 min 0 min 974 W/m 9,7 km/h (2 Bft) 95,74 %
30.04.2020 13:24 16,3 C 21,7 C 21,1 C 60 % 1002,1 hPa 0,0 l/m 2 min 0 min 1012 W/m 16,1 km/h (3 Bft) 95,74 %
30.04.2020 13:26 16,4 C 19,4 C 20,0 C 60 % 1002,2 hPa 0,0 l/m 2 min 0 min 610 W/m 19,3 km/h (3 Bft) 91,49 %
30.04.2020 13:28 16,4 C 17,2 C 17,8 C 57 % 1002,2 hPa 0,0 l/m 0 min 0 min 261 W/m 22,5 km/h (4 Bft) 97,87 %
30.04.2020 13:30 16,4 C 15,6 C 16,7 C 55 % 1002,1 hPa 0,0 l/m 0 min 0 min 219 W/m 22,5 km/h (4 Bft) 97,83 %
30.04.2020 13:32 16,3 C 16,7 C 17,2 C 55 % 1002,2 hPa 0,0 l/m 0 min 0 min 218 W/m 29,0 km/h (5 Bft) 95,74 %
30.04.2020 13:34 16,2 C 19,4 C 21,1 C 56 % 1002,1 hPa 0,0 l/m 2 min 0 min 780 W/m 19,3 km/h (3 Bft) 95,74 %
30.04.2020 13:36 16,2 C 20,6 C 22,8 C 57 % 1002,1 hPa 0,0 l/m 2 min 0 min 1092 W/m 25,7 km/h (4 Bft) 95,74 %
30.04.2020 13:38 16,3 C 18,3 C 20,6 C 56 % 1002,1 hPa 0,0 l/m 2 min 0 min 665 W/m 22,5 km/h (4 Bft) 97,87 %
30.04.2020 13:40 16,3 C 17,2 C 18,9 C 56 % 1002,1 hPa 0,0 l/m 0 min 0 min 303 W/m 32,2 km/h (5 Bft) 97,87 %
30.04.2020 13:42 16,3 C 16,7 C 17,8 C 55 % 1002,1 hPa 0,0 l/m 0 min 0 min 379 W/m 29,0 km/h (5 Bft) 93,48 %
30.04.2020 13:44 16,2 C 17,2 C 18,3 C 56 % 1002,0 hPa 0,0 l/m 2 min 0 min 410 W/m 29,0 km/h (5 Bft) 95,74 %
30.04.2020 13:46 16,2 C 17,2 C 17,8 C 56 % 1001,9 hPa 0,0 l/m 0 min 0 min 306 W/m 25,7 km/h (4 Bft) 95,74 %
30.04.2020 13:48 16,1 C 17,8 C 19,4 C 56 % 1001,9 hPa 0,0 l/m 0 min 0 min 297 W/m 29,0 km/h (5 Bft) 93,62 %
30.04.2020 13:50 16,1 C 17,2 C 17,8 C 57 % 1001,9 hPa 0,0 l/m 0 min 0 min 302 W/m 22,5 km/h (4 Bft) 95,74 %
30.04.2020 13:52 16,1 C 17,8 C 18,9 C 57 % 1001,9 hPa 0,0 l/m 0 min 0 min 341 W/m 29,0 km/h (5 Bft) 93,62 %
30.04.2020 13:54 16,1 C 17,2 C 17,8 C 56 % 1001,9 hPa 0,0 l/m 0 min 0 min 309 W/m 22,5 km/h (4 Bft) 95,65 %
30.04.2020 13:56 16,1 C 16,7 C 17,2 C 56 % 1001,9 hPa 0,0 l/m 0 min 0 min 319 W/m 19,3 km/h (3 Bft) 97,87 %
30.04.2020 13:58 16,1 C 17,2 C 17,2 C 57 % 1001,9 hPa 0,0 l/m 0 min 0 min 338 W/m 6,4 km/h (2 Bft) 97,87 %
30.04.2020 14:00 16,1 C 18,9 C 20,0 C 59 % 1001,9 hPa 0,0 l/m 0 min 0 min 339 W/m 16,1 km/h (3 Bft) 97,87 %
30.04.2020 14:02 16,1 C 19,4 C 20,6 C 57 % 1001,9 hPa 0,0 l/m 2 min 0 min 1051 W/m 29,0 km/h (5 Bft) 95,74 %
30.04.2020 14:04 16,2 C 18,9 C 20,6 C 58 % 1001,8 hPa 0,0 l/m 2 min 0 min 990 W/m 12,9 km/h (3 Bft) 97,87 %
30.04.2020 14:06 16,2 C 16,7 C 17,8 C 57 % 1001,9 hPa 0,0 l/m 0 min 0 min 302 W/m 19,3 km/h (3 Bft) 97,83 %
30.04.2020 14:08 16,1 C 15,6 C 16,1 C 56 % 1002,0 hPa 0,0 l/m 0 min 0 min 268 W/m 19,3 km/h (3 Bft) 95,74 %
30.04.2020 14:10 16,1 C 17,2 C 17,2 C 57 % 1001,9 hPa 0,0 l/m 0 min 0 min 357 W/m 12,9 km/h (3 Bft) 93,62 %
30.04.2020 14:12 16,1 C 20,0 C 20,6 C 60 % 1002,0 hPa 0,0 l/m 0 min 0 min 376 W/m 16,1 km/h (3 Bft) 95,74 %
30.04.2020 14:14 16,2 C 21,7 C 22,8 C 60 % 1001,9 hPa 0,0 l/m 2 min 0 min 793 W/m 16,1 km/h (3 Bft) 95,74 %
30.04.2020 14:16 16,3 C 20,0 C 21,7 C 57 % 1001,8 hPa 0,0 l/m 2 min 0 min 1012 W/m 29,0 km/h (5 Bft) 95,74 %
30.04.2020 14:18 16,3 C 17,8 C 18,3 C 57 % 1001,9 hPa 0,0 l/m 0 min 0 min 379 W/m 32,2 km/h (5 Bft) 93,48 %
30.04.2020 14:20 16,3 C 17,2 C 17,8 C 56 % 1001,9 hPa 0,0 l/m 0 min 0 min 334 W/m 16,1 km/h (3 Bft) 93,62 %
30.04.2020 14:22 16,3 C 17,2 C 17,2 C 57 % 1001,9 hPa 0,0 l/m 0 min 0 min 340 W/m 12,9 km/h (3 Bft) 95,74 %
30.04.2020 14:24 16,3 C 18,3 C 17,8 C 57 % 1001,9 hPa 0,0 l/m 0 min 0 min 367 W/m 29,0 km/h (5 Bft) 95,74 %
30.04.2020 14:26 16,3 C 17,2 C 17,2 C 57 % 1002,0 hPa 0,0 l/m 0 min 0 min 362 W/m 19,3 km/h (3 Bft) 95,74 %
30.04.2020 14:28 16,3 C 16,7 C 16,7 C 56 % 1001,9 hPa 0,0 l/m 0 min 0 min 310 W/m 16,1 km/h (3 Bft) 95,65 %
30.04.2020 14:30 16,2 C 16,7 C 16,7 C 57 % 1001,8 hPa 0,0 l/m 0 min 0 min 250 W/m 6,4 km/h (2 Bft) 95,74 %
30.04.2020 14:32 16,2 C 16,1 C 16,1 C 58 % 1001,8 hPa 0,0 l/m 0 min 0 min 271 W/m 22,5 km/h (4 Bft) 95,74 %
30.04.2020 14:34 16,1 C 16,1 C 16,1 C 56 % 1001,9 hPa 0,0 l/m 0 min 0 min 326 W/m 32,2 km/h (5 Bft) 95,74 %
30.04.2020 14:36 16,1 C 16,1 C 15,6 C 56 % 1001,9 hPa 0,0 l/m 0 min 0 min 312 W/m 29,0 km/h (5 Bft) 95,74 %
30.04.2020 14:38 15,9 C 15,6 C 15,6 C 56 % 1001,9 hPa 0,0 l/m 0 min 0 min 292 W/m 32,2 km/h (5 Bft) 95,74 %
30.04.2020 14:40 15,9 C 15,6 C 15,6 C 56 % 1001,9 hPa 0,0 l/m 0 min 0 min 297 W/m 22,5 km/h (4 Bft) 95,65 %
30.04.2020 14:42 15,8 C 16,1 C 15,6 C 55 % 1001,9 hPa 0,0 l/m 0 min 0 min 322 W/m 32,2 km/h (5 Bft) 95,74 %
30.04.2020 14:44 15,7 C 16,7 C 16,1 C 55 % 1001,8 hPa 0,0 l/m 0 min 0 min 323 W/m 25,7 km/h (4 Bft) 95,74 %
30.04.2020 14:46 15,7 C 16,1 C 16,1 C 54 % 1001,9 hPa 0,0 l/m 0 min 0 min 332 W/m 25,7 km/h (4 Bft) 95,74 %
30.04.2020 14:48 15,7 C 16,1 C 16,1 C 56 % 1001,8 hPa 0,0 l/m 0 min 0 min 324 W/m 19,3 km/h (3 Bft) 95,74 %
30.04.2020 14:50 15,6 C 16,7 C 16,1 C 56 % 1001,8 hPa 0,0 l/m 0 min 0 min 362 W/m 19,3 km/h (3 Bft) 93,62 %
30.04.2020 14:52 15,7 C 16,7 C 16,1 C 56 % 1001,7 hPa 0,0 l/m 0 min 0 min 305 W/m 12,9 km/h (3 Bft) 95,65 %
30.04.2020 14:54 15,7 C 16,1 C 16,1 C 56 % 1001,8 hPa 0,0 l/m 0 min 0 min 306 W/m 22,5 km/h (4 Bft) 95,74 %
30.04.2020 14:56 15,7 C 15,6 C 15,6 C 55 % 1001,7 hPa 0,0 l/m 0 min 0 min 317 W/m 32,2 km/h (5 Bft) 100,00 %
30.04.2020 14:58 15,6 C 16,1 C 15,6 C 54 % 1001,6 hPa 0,0 l/m 0 min 0 min 339 W/m 22,5 km/h (4 Bft) 100,00 %
30.04.2020 15:00 15,6 C 16,1 C 16,1 C 55 % 1001,6 hPa 0,0 l/m 0 min 0 min 353 W/m 22,5 km/h (4 Bft) 100,00 %
30.04.2020 15:02 15,6 C 16,7 C 15,6 C 54 % 1001,5 hPa 0,0 l/m 2 min 0 min 393 W/m 22,5 km/h (4 Bft) 100,00 %
30.04.2020 15:04 15,6 C 16,7 C 16,1 C 54 % 1001,5 hPa 0,0 l/m 2 min 0 min 456 W/m 32,2 km/h (5 Bft) 97,83 %
30.04.2020 15:06 15,6 C 17,2 C 16,1 C 54 % 1001,4 hPa 0,0 l/m 2 min 0 min 462 W/m 16,1 km/h (3 Bft) 100,00 %
30.04.2020 15:08 15,7 C 17,8 C 16,7 C 54 % 1001,5 hPa 0,0 l/m 2 min 0 min 477 W/m 19,3 km/h (3 Bft) 100,00 %
30.04.2020 15:10 15,7 C 17,8 C 16,7 C 55 % 1001,4 hPa 0,0 l/m 2 min 0 min 523 W/m 25,7 km/h (4 Bft) 100,00 %
30.04.2020 15:12 15,8 C 18,3 C 16,7 C 56 % 1001,3 hPa 0,0 l/m 2 min 0 min 555 W/m 16,1 km/h (3 Bft) 97,87 %
30.04.2020 15:14 15,8 C 17,8 C 16,7 C 54 % 1001,2 hPa 0,0 l/m 2 min 0 min 531 W/m 29,0 km/h (5 Bft) 100,00 %
30.04.2020 15:16 15,9 C 18,3 C 16,7 C 54 % 1001,2 hPa 0,0 l/m 2 min 0 min 643 W/m 32,2 km/h (5 Bft) 100,00 %
30.04.2020 15:18 16,0 C 18,9 C 16,7 C 54 % 1001,2 hPa 0,0 l/m 2 min 0 min 865 W/m 25,7 km/h (4 Bft) 100,00 %
30.04.2020 15:20 16,1 C 19,4 C 17,2 C 54 % 1001,0 hPa 0,0 l/m 2 min 0 min 865 W/m 12,9 km/h (3 Bft) 100,00 %
30.04.2020 15:22 16,2 C 18,9 C 17,2 C 55 % 1001,1 hPa 0,0 l/m 2 min 0 min 865 W/m 29,0 km/h (5 Bft) 100,00 %
30.04.2020 15:24 16,2 C 17,8 C 16,7 C 54 % 1001,1 hPa 0,0 l/m 2 min 0 min 775 W/m 32,2 km/h (5 Bft) 100,00 %
30.04.2020 15:26 16,3 C 17,2 C 16,1 C 53 % 1001,0 hPa 0,0 l/m 2 min 0 min 420 W/m 22,5 km/h (4 Bft) 100,00 %
30.04.2020 15:28 16,3 C 17,2 C 16,1 C 54 % 1001,0 hPa 0,0 l/m 2 min 0 min 483 W/m 29,0 km/h (5 Bft) 100,00 %
30.04.2020 15:30 16,3 C 17,8 C 16,7 C 54 % 1000,9 hPa 0,0 l/m 2 min 0 min 522 W/m 22,5 km/h (4 Bft) 97,87 %
30.04.2020 15:32 16,3 C 18,3 C 16,7 C 54 % 1000,9 hPa 0,0 l/m 2 min 0 min 522 W/m 22,5 km/h (4 Bft) 100,00 %
30.04.2020 15:34 16,3 C 18,3 C 16,7 C 55 % 1000,9 hPa 0,0 l/m 2 min 0 min 542 W/m 25,7 km/h (4 Bft) 100,00 %
30.04.2020 15:36 16,4 C 18,9 C 16,7 C 54 % 1000,8 hPa 0,0 l/m 2 min 0 min 643 W/m 22,5 km/h (4 Bft) 100,00 %
30.04.2020 15:38 16,4 C 19,4 C 17,2 C 55 % 1000,7 hPa 0,0 l/m 2 min 0 min 583 W/m 19,3 km/h (3 Bft) 100,00 %
30.04.2020 15:40 16,5 C 19,4 C 17,2 C 56 % 1000,7 hPa 0,0 l/m 2 min 0 min 622 W/m 22,5 km/h (4 Bft) 97,87 %
30.04.2020 15:42 16,6 C 19,4 C 17,2 C 55 % 1000,6 hPa 0,0 l/m 2 min 0 min 536 W/m 12,9 km/h (3 Bft) 97,87 %
30.04.2020 15:44 16,6 C 18,9 C 16,7 C 54 % 1000,6 hPa 0,0 l/m 2 min 0 min 524 W/m 16,1 km/h (3 Bft) 95,74 %
30.04.2020 15:46 16,7 C 18,9 C 16,7 C 54 % 1000,5 hPa 0,0 l/m 2 min 0 min 505 W/m 12,9 km/h (3 Bft) 97,87 %
30.04.2020 15:48 16,7 C 18,9 C 16,7 C 54 % 1000,4 hPa 0,0 l/m 2 min 0 min 550 W/m 22,5 km/h (4 Bft) 95,74 %
30.04.2020 15:50 16,7 C 18,9 C 16,7 C 54 % 1000,4 hPa 0,0 l/m 2 min 0 min 569 W/m 19,3 km/h (3 Bft) 97,83 %
30.04.2020 15:52 16,7 C 18,3 C 16,7 C 54 % 1000,5 hPa 0,0 l/m 2 min 0 min 530 W/m 12,9 km/h (3 Bft) 97,87 %
30.04.2020 15:54 16,8 C 18,9 C 16,7 C 54 % 1000,4 hPa 0,0 l/m 2 min 0 min 564 W/m 22,5 km/h (4 Bft) 97,87 %
30.04.2020 15:56 16,8 C 19,4 C 17,2 C 54 % 1000,4 hPa 0,0 l/m 2 min 0 min 700 W/m 19,3 km/h (3 Bft) 97,87 %
30.04.2020 15:58 16,9 C 18,9 C 17,2 C 55 % 1000,4 hPa 0,0 l/m 2 min 0 min 704 W/m 19,3 km/h (3 Bft) 97,87 %
30.04.2020 16:00 16,9 C 18,9 C 16,7 C 54 % 1000,3 hPa 0,0 l/m 2 min 0 min 548 W/m 19,3 km/h (3 Bft) 95,74 %
30.04.2020 16:02 16,9 C 18,9 C 16,7 C 53 % 1000,3 hPa 0,0 l/m 2 min 0 min 603 W/m 22,5 km/h (4 Bft) 97,83 %
30.04.2020 16:04 16,9 C 18,9 C 17,2 C 54 % 1000,3 hPa 0,0 l/m 2 min 0 min 588 W/m 19,3 km/h (3 Bft) 96,00 %
30.04.2020 16:06 17,0 C 18,9 C 17,2 C 55 % 1000,3 hPa 0,0 l/m 2 min 0 min 486 W/m 29,0 km/h (5 Bft) 97,87 %
30.04.2020 16:08 17,0 C 17,8 C 17,2 C 53 % 1000,2 hPa 0,0 l/m 2 min 0 min 362 W/m 25,7 km/h (4 Bft) 97,87 %
30.04.2020 16:10 17,0 C 17,2 C 16,7 C 52 % 1000,2 hPa 0,0 l/m 0 min 0 min 323 W/m 19,3 km/h (3 Bft) 97,87 %
30.04.2020 16:12 17,0 C 17,2 C 16,7 C 52 % 1000,2 hPa 0,0 l/m 0 min 0 min 323 W/m 25,7 km/h (4 Bft) 97,83 %
30.04.2020 16:14 16,9 C 17,2 C 16,7 C 52 % 1000,2 hPa 0,0 l/m 2 min 0 min 367 W/m 25,7 km/h (4 Bft) 97,87 %
30.04.2020 16:16 16,9 C 17,2 C 16,7 C 52 % 1000,1 hPa 0,0 l/m 2 min 0 min 349 W/m 22,5 km/h (4 Bft) 97,87 %
30.04.2020 16:18 16,9 C 16,7 C 16,7 C 53 % 1000,1 hPa 0,0 l/m 0 min 0 min 276 W/m 25,7 km/h (4 Bft) 97,87 %
30.04.2020 16:20 16,9 C 16,7 C 16,7 C 53 % 1000,1 hPa 0,0 l/m 0 min 0 min 241 W/m 19,3 km/h (3 Bft) 100,00 %
30.04.2020 16:22 16,8 C 16,7 C 16,7 C 53 % 1000,1 hPa 0,0 l/m 0 min 0 min 215 W/m 12,9 km/h (3 Bft) 100,00 %
30.04.2020 16:24 16,8 C 16,1 C 16,1 C 53 % 1000,1 hPa 0,0 l/m 0 min 0 min 187 W/m 22,5 km/h (4 Bft) 100,00 %
30.04.2020 16:26 16,8 C 16,1 C 16,1 C 53 % 1000,0 hPa 0,0 l/m 0 min 0 min 157 W/m 22,5 km/h (4 Bft) 97,87 %
30.04.2020 16:30 16,7 C 15,6 C 15,6 C 53 % 1000,0 hPa 0,0 l/m 0 min 0 min 124 W/m 22,5 km/h (4 Bft) 100,00 %
30.04.2020 16:32 16,6 C 15,6 C 15,6 C 53 % 1000,0 hPa 0,0 l/m 0 min 0 min 116 W/m 19,3 km/h (3 Bft) 100,00 %
30.04.2020 16:34 16,6 C 15,6 C 15,0 C 53 % 1000,0 hPa 0,0 l/m 0 min 0 min 114 W/m 16,1 km/h (3 Bft) 100,00 %
30.04.2020 16:38 16,4 C 15,6 C 15,0 C 54 % 1000,1 hPa 0,0 l/m 0 min 0 min 96 W/m 22,5 km/h (4 Bft) 100,00 %
30.04.2020 16:40 16,3 C 15,0 C 15,0 C 54 % 1000,1 hPa 0,0 l/m 0 min 0 min 72 W/m 16,1 km/h (3 Bft) 100,00 %
30.04.2020 16:42 16,3 C 15,0 C 15,0 C 55 % 1000,1 hPa 0,0 l/m 0 min 0 min 60 W/m 16,1 km/h (3 Bft) 100,00 %
30.04.2020 16:44 16,3 C 15,0 C 15,0 C 55 % 1000,3 hPa 0,0 l/m 0 min 0 min 49 W/m 22,5 km/h (4 Bft) 100,00 %
30.04.2020 16:45 16,2 C 14,4 C 14,4 C 55 % 1000,3 hPa 0,0 l/m 0 min 1 min 49 W/m 32,2 km/h (5 Bft) 100,00 %
30.04.2020 16:52 15,8 C 12,8 C 12,2 C 55 % 1000,3 hPa 0,0 l/m 0 min 5 min 21 W/m 12,9 km/h (3 Bft) 100,00 %
30.04.2020 16:54 15,7 C 12,2 C 11,7 C 58 % 1000,4 hPa 0,0 l/m 0 min 2 min 19 W/m 12,9 km/h (3 Bft) 100,00 %
30.04.2020 16:56 15,6 C 11,7 C 10,6 C 60 % 1000,7 hPa 0,0 l/m 0 min 2 min 19 W/m 29,0 km/h (5 Bft) 100,00 %
30.04.2020 16:58 15,4 C 11,7 C 10,6 C 60 % 1000,7 hPa 0,0 l/m 0 min 2 min 24 W/m 25,7 km/h (4 Bft) 100,00 %
30.04.2020 17:00 15,2 C 10,6 C 10,6 C 62 % 1000,7 hPa 0,0 l/m 0 min 2 min 26 W/m 25,7 km/h (4 Bft) 100,00 %
30.04.2020 17:02 15,0 C 9,4 C 9,4 C 63 % 1000,9 hPa 0,0 l/m 0 min 2 min 26 W/m 35,4 km/h (5 Bft) 97,87 %
30.04.2020 17:04 14,8 C 8,3 C 8,9 C 65 % 1001,0 hPa 0,2 l/m 0 min 2 min 25 W/m 35,4 km/h (5 Bft) 97,83 %
30.04.2020 17:06 14,3 C 8,3 C 8,3 C 68 % 1001,4 hPa 0,0 l/m 0 min 2 min 23 W/m 48,3 km/h (6 Bft) 95,74 %
30.04.2020 17:08 14,0 C 8,9 C 8,3 C 70 % 1001,4 hPa 0,0 l/m 0 min 2 min 26 W/m 38,6 km/h (5 Bft) 97,30 %
30.04.2020 17:10 13,7 C 8,3 C 8,3 C 72 % 1001,2 hPa 0,2 l/m 0 min 2 min 30 W/m 25,7 km/h (4 Bft) 97,87 %
30.04.2020 17:12 13,3 C 8,3 C 8,3 C 74 % 1001,4 hPa 0,0 l/m 0 min 2 min 32 W/m 48,3 km/h (6 Bft) 95,65 %
30.04.2020 17:14 12,9 C 8,3 C 8,3 C 76 % 1001,4 hPa 0,2 l/m 0 min 2 min 31 W/m 35,4 km/h (5 Bft) 98,18 %
30.04.2020 17:16 12,6 C 8,3 C 8,3 C 77 % 1001,5 hPa 0,0 l/m 0 min 2 min 28 W/m 22,5 km/h (4 Bft) 95,65 %
30.04.2020 17:18 12,3 C 8,3 C 8,3 C 79 % 1001,4 hPa 0,0 l/m 0 min 2 min 29 W/m 25,7 km/h (4 Bft) 98,00 %
30.04.2020 17:20 12,1 C 8,3 C 8,3 C 80 % 1001,4 hPa 0,2 l/m 0 min 2 min 32 W/m 19,3 km/h (3 Bft) 97,30 %
30.04.2020 17:22 11,8 C 8,3 C 8,3 C 81 % 1001,4 hPa 0,0 l/m 0 min 2 min 39 W/m 16,1 km/h (3 Bft) 93,62 %
30.04.2020 17:24 11,6 C 8,3 C 8,3 C 83 % 1001,4 hPa 0,2 l/m 0 min 2 min 49 W/m 19,3 km/h (3 Bft) 95,65 %
30.04.2020 17:26 11,5 C 8,3 C 8,3 C 83 % 1001,3 hPa 0,2 l/m 0 min 2 min 54 W/m 22,5 km/h (4 Bft) 95,74 %
30.04.2020 17:28 11,3 C 8,3 C 8,3 C 84 % 1001,3 hPa 0,0 l/m 0 min 2 min 50 W/m 19,3 km/h (3 Bft) 96,30 %
30.04.2020 17:30 11,2 C 8,3 C 8,3 C 85 % 1001,3 hPa 0,0 l/m 0 min 2 min 47 W/m 16,1 km/h (3 Bft) 96,00 %
30.04.2020 17:32 11,1 C 8,3 C 8,3 C 85 % 1001,3 hPa 0,0 l/m 0 min 2 min 50 W/m 22,5 km/h (4 Bft) 93,62 %
30.04.2020 17:34 10,9 C 8,3 C 8,3 C 86 % 1001,2 hPa 0,0 l/m 0 min 2 min 53 W/m 6,4 km/h (2 Bft) 97,30 %
30.04.2020 17:36 10,8 C 8,3 C 8,9 C 86 % 1001,2 hPa 0,0 l/m 0 min 2 min 50 W/m 6,4 km/h (2 Bft) 95,65 %
30.04.2020 17:38 10,8 C 8,3 C 8,9 C 87 % 1001,1 hPa 0,2 l/m 0 min 2 min 53 W/m 3,2 km/h (1 Bft) 95,74 %
30.04.2020 17:40 10,8 C 8,3 C 8,9 C 87 % 1001,0 hPa 0,0 l/m 0 min 2 min 56 W/m 0,0 km/h (0 Bft) 94,44 %
30.04.2020 17:42 10,7 C 8,3 C 8,9 C 87 % 1000,9 hPa 0,0 l/m 0 min 2 min 67 W/m 3,2 km/h (1 Bft) 66,00 %
30.04.2020 17:44 10,7 C 8,3 C 8,3 C 88 % 1001,0 hPa 0,0 l/m 0 min 2 min 76 W/m 9,7 km/h (2 Bft) 81,48 %
30.04.2020 17:46 10,6 C 8,3 C 8,9 C 88 % 1001,0 hPa 0,0 l/m 0 min 2 min 74 W/m 3,2 km/h (1 Bft) 95,74 %
30.04.2020 17:48 10,6 C 8,3 C 8,9 C 88 % 1001,0 hPa 0,0 l/m 0 min 2 min 73 W/m 3,2 km/h (1 Bft) 95,65 %
30.04.2020 17:50 10,6 C 8,9 C 8,9 C 88 % 1000,9 hPa 0,0 l/m 0 min 2 min 77 W/m 0,0 km/h (0 Bft) 94,44 %
30.04.2020 17:52 10,6 C 8,9 C 8,9 C 89 % 1000,9 hPa 0,0 l/m 0 min 2 min 80 W/m 0,0 km/h (0 Bft) 96,00 %
30.04.2020 17:54 10,5 C 8,9 C 8,9 C 89 % 1000,9 hPa 0,0 l/m 0 min 0 min 75 W/m 0,0 km/h (0 Bft) 95,74 %
30.04.2020 17:56 10,5 C 8,9 C 8,9 C 89 % 1000,9 hPa 0,0 l/m 0 min 0 min 63 W/m 0,0 km/h (0 Bft) 94,59 %
30.04.2020 17:58 10,4 C 8,3 C 8,3 C 89 % 1000,9 hPa 0,0 l/m 0 min 0 min 57 W/m 6,4 km/h (2 Bft) 97,87 %
30.04.2020 18:00 10,4 C 8,3 C 8,3 C 89 % 1000,7 hPa 0,0 l/m 0 min 0 min 65 W/m 0,0 km/h (0 Bft) 95,65 %
30.04.2020 18:02 10,4 C 8,3 C 8,3 C 89 % 1000,6 hPa 0,0 l/m 0 min 0 min 73 W/m 0,0 km/h (0 Bft) 96,08 %
30.04.2020 18:04 10,3 C 8,3 C 8,3 C 89 % 1000,5 hPa 0,0 l/m 0 min 0 min 76 W/m 0,0 km/h (0 Bft) 94,34 %
30.04.2020 18:08 10,3 C 8,3 C 8,3 C 89 % 1000,6 hPa 0,0 l/m 0 min 0 min 76 W/m 6,4 km/h (2 Bft) 97,80 %
30.04.2020 18:10 10,3 C 8,9 C 8,3 C 90 % 1000,6 hPa 0,0 l/m 0 min 0 min 74 W/m 0,0 km/h (0 Bft) 97,87 %
30.04.2020 18:12 10,2 C 8,9 C 8,3 C 90 % 1000,5 hPa 0,0 l/m 0 min 0 min 78 W/m 0,0 km/h (0 Bft) 95,74 %
30.04.2020 18:14 10,2 C 8,9 C 8,9 C 90 % 1000,4 hPa 0,0 l/m 0 min 0 min 85 W/m 0,0 km/h (0 Bft) 97,87 %
30.04.2020 18:16 10,2 C 8,9 C 8,9 C 90 % 1000,4 hPa 0,0 l/m 0 min 0 min 86 W/m 3,2 km/h (1 Bft) 95,74 %
30.04.2020 18:18 10,2 C 8,9 C 8,9 C 90 % 1000,3 hPa 0,0 l/m 0 min 0 min 84 W/m 3,2 km/h (1 Bft) 97,14 %
30.04.2020 18:20 10,2 C 8,9 C 8,9 C 90 % 1000,2 hPa 0,0 l/m 0 min 0 min 84 W/m 12,9 km/h (3 Bft) 100,00 %
30.04.2020 18:22 10,2 C 8,9 C 8,9 C 90 % 1000,2 hPa 0,0 l/m 0 min 0 min 83 W/m 16,1 km/h (3 Bft) 98,00 %
30.04.2020 18:24 10,2 C 8,9 C 8,9 C 91 % 1000,1 hPa 0,0 l/m 0 min 0 min 81 W/m 12,9 km/h (3 Bft) 100,00 %
30.04.2020 18:26 10,2 C 8,9 C 8,9 C 91 % 1000,1 hPa 0,0 l/m 0 min 0 min 81 W/m 19,3 km/h (3 Bft) 100,00 %
30.04.2020 18:28 10,2 C 8,9 C 8,9 C 91 % 1000,2 hPa 0,0 l/m 0 min 0 min 78 W/m 3,2 km/h (1 Bft) 98,18 %
30.04.2020 18:30 10,2 C 8,9 C 8,9 C 91 % 1000,2 hPa 0,0 l/m 0 min 0 min 80 W/m 3,2 km/h (1 Bft) 100,00 %
30.04.2020 18:32 10,2 C 8,9 C 8,9 C 91 % 1000,1 hPa 0,0 l/m 0 min 0 min 84 W/m 3,2 km/h (1 Bft) 100,00 %
30.04.2020 18:34 10,2 C 8,9 C 8,9 C 92 % 1000,1 hPa 0,0 l/m 0 min 0 min 84 W/m 6,4 km/h (2 Bft) 97,87 %
30.04.2020 18:36 10,2 C 9,4 C 8,9 C 92 % 1000,1 hPa 0,0 l/m 0 min 0 min 87 W/m 16,1 km/h (3 Bft) 95,74 %
30.04.2020 18:38 10,2 C 9,4 C 8,9 C 92 % 1000,1 hPa 0,0 l/m 0 min 0 min 92 W/m 6,4 km/h (2 Bft) 97,87 %
30.04.2020 18:40 10,2 C 9,4 C 8,9 C 92 % 1000,1 hPa 0,0 l/m 0 min 0 min 100 W/m 16,1 km/h (3 Bft) 100,00 %
30.04.2020 18:42 10,2 C 9,4 C 8,9 C 92 % 1000,2 hPa 0,0 l/m 0 min 0 min 104 W/m 3,2 km/h (1 Bft) 96,36 %
30.04.2020 18:44 10,3 C 9,4 C 8,9 C 92 % 1000,2 hPa 0,0 l/m 0 min 0 min 109 W/m 6,4 km/h (2 Bft) 97,87 %
30.04.2020 18:46 10,3 C 10,0 C 9,4 C 92 % 1000,2 hPa 0,0 l/m 0 min 0 min 140 W/m 6,4 km/h (2 Bft) 98,00 %
30.04.2020 18:48 10,3 C 10,6 C 9,4 C 92 % 1000,2 hPa 0,0 l/m 2 min 0 min 386 W/m 3,2 km/h (1 Bft) 93,62 %
30.04.2020 18:50 10,3 C 10,6 C 9,4 C 92 % 1000,1 hPa 0,0 l/m 2 min 0 min 366 W/m 3,2 km/h (1 Bft) 97,14 %
30.04.2020 18:52 10,4 C 10,6 C 9,4 C 93 % 1000,1 hPa 0,0 l/m 2 min 0 min 342 W/m 3,2 km/h (1 Bft) 98,18 %
30.04.2020 18:54 10,4 C 10,6 C 9,4 C 93 % 1000,1 hPa 0,0 l/m 2 min 0 min 264 W/m 0,0 km/h (0 Bft) 94,00 %
30.04.2020 18:56 10,5 C 10,6 C 9,4 C 93 % 1000,1 hPa 0,0 l/m 2 min 0 min 230 W/m 6,4 km/h (2 Bft) 97,87 %
30.04.2020 18:58 10,6 C 10,6 C 10,0 C 93 % 1000,1 hPa 0,0 l/m 2 min 0 min 253 W/m 6,4 km/h (2 Bft) 100,00 %
30.04.2020 19:00 10,6 C 10,6 C 10,0 C 93 % 1000,0 hPa 0,0 l/m 2 min 0 min 220 W/m 6,4 km/h (2 Bft) 94,55 %
30.04.2020 19:02 10,6 C 10,6 C 10,0 C 93 % 1000,0 hPa 0,0 l/m 2 min 0 min 212 W/m 12,9 km/h (3 Bft) 98,00 %
30.04.2020 19:04 10,7 C 10,6 C 9,4 C 93 % 999,9 hPa 0,0 l/m 2 min 0 min 194 W/m 16,1 km/h (3 Bft) 97,92 %
30.04.2020 19:06 10,7 C 10,6 C 10,0 C 93 % 999,9 hPa 0,0 l/m 2 min 0 min 162 W/m 6,4 km/h (2 Bft) 97,83 %
30.04.2020 19:08 10,7 C 10,6 C 9,4 C 93 % 999,9 hPa 0,0 l/m 2 min 0 min 131 W/m 6,4 km/h (2 Bft) 97,87 %
30.04.2020 19:10 10,7 C 10,6 C 9,4 C 92 % 999,9 hPa 0,0 l/m 0 min 0 min 105 W/m 16,1 km/h (3 Bft) 97,62 %
30.04.2020 19:12 10,8 C 10,0 C 9,4 C 92 % 999,8 hPa 0,0 l/m 0 min 0 min 84 W/m 3,2 km/h (1 Bft) 93,88 %
30.04.2020 19:14 10,8 C 10,0 C 9,4 C 92 % 999,8 hPa 0,0 l/m 0 min 0 min 67 W/m 3,2 km/h (1 Bft) 98,00 %
30.04.2020 19:16 10,8 C 10,0 C 9,4 C 92 % 999,7 hPa 0,0 l/m 0 min 0 min 57 W/m 16,1 km/h (3 Bft) 97,87 %
30.04.2020 19:18 10,8 C 10,0 C 9,4 C 92 % 999,7 hPa 0,0 l/m 0 min 0 min 52 W/m 22,5 km/h (4 Bft) 97,83 %
30.04.2020 19:20 10,8 C 10,0 C 8,9 C 92 % 999,6 hPa 0,0 l/m 0 min 0 min 48 W/m 12,9 km/h (3 Bft) 97,62 %
30.04.2020 19:22 10,8 C 10,0 C 8,9 C 91 % 999,6 hPa 0,0 l/m 0 min 0 min 47 W/m 6,4 km/h (2 Bft) 100,00 %
30.04.2020 19:24 10,8 C 10,0 C 8,9 C 91 % 999,7 hPa 0,0 l/m 0 min 0 min 46 W/m 12,9 km/h (3 Bft) 100,00 %
30.04.2020 19:26 10,8 C 10,0 C 8,9 C 91 % 999,7 hPa 0,0 l/m 0 min 0 min 46 W/m 6,4 km/h (2 Bft) 95,92 %
30.04.2020 19:28 10,8 C 10,0 C 8,9 C 91 % 999,9 hPa 0,0 l/m 0 min 0 min 43 W/m 3,2 km/h (1 Bft) 100,00 %
30.04.2020 19:30 10,8 C 10,0 C 8,9 C 91 % 999,9 hPa 0,0 l/m 0 min 0 min 34 W/m 6,4 km/h (2 Bft) 100,00 %
30.04.2020 19:32 10,9 C 10,0 C 8,9 C 91 % 999,9 hPa 0,0 l/m 0 min 0 min 39 W/m 3,2 km/h (1 Bft) 98,15 %
30.04.2020 19:34 10,9 C 10,0 C 8,9 C 91 % 1000,0 hPa 0,0 l/m 0 min 0 min 69 W/m 6,4 km/h (2 Bft) 94,00 %
30.04.2020 19:36 10,9 C 10,0 C 8,9 C 91 % 1000,0 hPa 0,0 l/m 0 min 0 min 47 W/m 6,4 km/h (2 Bft) 95,65 %
30.04.2020 19:38 10,9 C 10,0 C 8,9 C 91 % 1000,0 hPa 0,0 l/m 0 min 0 min 37 W/m 3,2 km/h (1 Bft) 100,00 %
30.04.2020 19:40 10,9 C 10,0 C 8,9 C 91 % 1000,0 hPa 0,0 l/m 0 min 0 min 28 W/m 3,2 km/h (1 Bft) 59,57 %
30.04.2020 19:42 10,9 C 10,0 C 8,9 C 91 % 1000,1 hPa 0,0 l/m 0 min 0 min 27 W/m 3,2 km/h (1 Bft) 92,86 %
30.04.2020 19:44 10,9 C 10,0 C 8,9 C 91 % 1000,1 hPa 0,0 l/m 0 min 0 min 28 W/m 3,2 km/h (1 Bft) 97,22 %
30.04.2020 19:46 10,9 C 10,0 C 8,9 C 91 % 1000,1 hPa 0,0 l/m 0 min 0 min 30 W/m 6,4 km/h (2 Bft) 98,15 %
30.04.2020 19:48 10,9 C 10,0 C 8,9 C 91 % 1000,0 hPa 0,0 l/m 0 min 0 min 28 W/m 12,9 km/h (3 Bft) 97,96 %
30.04.2020 19:50 10,9 C 9,4 C 8,9 C 91 % 1000,0 hPa 0,0 l/m 0 min 0 min 25 W/m 6,4 km/h (2 Bft) 95,92 %
30.04.2020 19:52 10,9 C 9,4 C 8,9 C 91 % 1000,0 hPa 0,0 l/m 0 min 0 min 20 W/m 12,9 km/h (3 Bft) 97,87 %
30.04.2020 19:54 10,8 C 9,4 C 8,9 C 91 % 999,9 hPa 0,0 l/m 0 min 0 min 19 W/m 12,9 km/h (3 Bft) 100,00 %
30.04.2020 19:56 10,8 C 9,4 C 8,9 C 91 % 999,9 hPa 0,0 l/m 0 min 0 min 17 W/m 3,2 km/h (1 Bft) 96,30 %
30.04.2020 19:58 10,8 C 10,0 C 8,9 C 91 % 999,9 hPa 0,0 l/m 0 min 0 min 16 W/m 6,4 km/h (2 Bft) 97,96 %
30.04.2020 20:00 10,8 C 9,4 C 8,9 C 91 % 999,9 hPa 0,0 l/m 0 min 0 min 16 W/m 12,9 km/h (3 Bft) 97,87 %
30.04.2020 20:02 10,8 C 9,4 C 8,9 C 91 % 999,8 hPa 0,0 l/m 0 min 0 min 14 W/m 6,4 km/h (2 Bft) 97,96 %
30.04.2020 20:04 10,8 C 9,4 C 8,9 C 90 % 999,8 hPa 0,0 l/m 0 min 0 min 13 W/m 0,0 km/h (0 Bft) 97,83 %
30.04.2020 20:06 10,7 C 9,4 C 8,9 C 90 % 999,8 hPa 0,0 l/m 0 min 0 min 12 W/m 3,2 km/h (1 Bft) 97,22 %
30.04.2020 20:08 10,7 C 9,4 C 8,9 C 90 % 999,8 hPa 0,0 l/m 0 min 0 min 14 W/m 16,1 km/h (3 Bft) 97,83 %
30.04.2020 20:09 10,7 C 9,4 C 8,9 C 90 % 999,9 hPa 0,0 l/m 0 min 0 min 14 W/m 12,9 km/h (3 Bft) 100,00 %
30.04.2020 20:12 10,7 C 9,4 C 8,9 C 90 % 999,9 hPa 0,0 l/m 0 min 0 min 16 W/m 3,2 km/h (1 Bft) 98,18 %
30.04.2020 20:14 10,7 C 10,0 C 8,9 C 91 % 999,9 hPa 0,0 l/m 0 min 0 min 16 W/m 12,9 km/h (3 Bft) 100,00 %
30.04.2020 20:16 10,7 C 9,4 C 8,9 C 91 % 999,9 hPa 0,0 l/m 0 min 0 min 16 W/m 12,9 km/h (3 Bft) 100,00 %
30.04.2020 20:18 10,6 C 9,4 C 8,9 C 91 % 1000,0 hPa 0,0 l/m 0 min 0 min 15 W/m 12,9 km/h (3 Bft) 100,00 %
30.04.2020 20:20 10,6 C 9,4 C 8,9 C 91 % 1000,0 hPa 0,0 l/m 0 min 0 min 12 W/m 6,4 km/h (2 Bft) 100,00 %
30.04.2020 20:22 10,6 C 9,4 C 8,9 C 91 % 1000,0 hPa 0,0 l/m 0 min 0 min 12 W/m 3,2 km/h (1 Bft) 100,00 %
30.04.2020 20:24 10,6 C 9,4 C 8,9 C 90 % 1000,0 hPa 0,0 l/m 0 min 0 min 12 W/m 6,4 km/h (2 Bft) 100,00 %
30.04.2020 20:26 10,6 C 9,4 C 8,9 C 90 % 999,9 hPa 0,0 l/m 0 min 0 min 12 W/m 3,2 km/h (1 Bft) 100,00 %
30.04.2020 20:28 10,6 C 9,4 C 8,9 C 90 % 999,9 hPa 0,0 l/m 0 min 0 min 12 W/m 6,4 km/h (2 Bft) 100,00 %
30.04.2020 20:30 10,6 C 9,4 C 8,9 C 90 % 999,9 hPa 0,0 l/m 0 min 0 min 12 W/m 3,2 km/h (1 Bft) 100,00 %
30.04.2020 20:32 10,6 C 9,4 C 8,3 C 90 % 1000,0 hPa 0,0 l/m 0 min 0 min 11 W/m 0,0 km/h (0 Bft) 100,00 %
30.04.2020 20:34 10,5 C 9,4 C 8,3 C 90 % 1000,0 hPa 0,0 l/m 0 min 0 min 10 W/m 19,3 km/h (3 Bft) 100,00 %
30.04.2020 20:36 10,5 C 9,4 C 8,3 C 90 % 1000,0 hPa 0,0 l/m 0 min 0 min 9 W/m 3,2 km/h (1 Bft) 100,00 %
30.04.2020 20:38 10,5 C 9,4 C 8,3 C 90 % 1000,0 hPa 0,0 l/m 0 min 0 min 7 W/m 12,9 km/h (3 Bft) 100,00 %
30.04.2020 20:40 10,5 C 9,4 C 8,3 C 90 % 1000,0 hPa 0,0 l/m 0 min 0 min 7 W/m 3,2 km/h (1 Bft) 97,87 %
30.04.2020 20:42 10,4 C 9,4 C 8,9 C 90 % 1000,0 hPa 0,0 l/m 0 min 0 min 5 W/m 12,9 km/h (3 Bft) 100,00 %
30.04.2020 20:44 10,4 C 9,4 C 8,3 C 90 % 1000,0 hPa 0,0 l/m 0 min 0 min 5 W/m 3,2 km/h (1 Bft) 100,00 %
30.04.2020 20:46 10,4 C 9,4 C 8,9 C 90 % 1000,0 hPa 0,0 l/m 0 min 0 min 5 W/m 12,9 km/h (3 Bft) 100,00 %
30.04.2020 20:48 10,4 C 9,4 C 8,9 C 91 % 1000,1 hPa 0,0 l/m 0 min 0 min 4 W/m 0,0 km/h (0 Bft) 100,00 %
30.04.2020 20:50 10,4 C 9,4 C 8,9 C 91 % 1000,1 hPa 0,0 l/m 0 min 0 min 0 W/m 0,0 km/h (0 Bft) 100,00 %
30.04.2020 20:52 10,4 C 9,4 C 8,9 C 91 % 1000,1 hPa 0,0 l/m 0 min 0 min 0 W/m 6,4 km/h (2 Bft) 100,00 %
30.04.2020 20:54 10,4 C 9,4 C 8,9 C 91 % 1000,1 hPa 0,0 l/m 0 min 0 min 0 W/m 9,7 km/h (2 Bft) 95,74 %
30.04.2020 20:56 10,4 C 9,4 C 8,9 C 91 % 1000,1 hPa 0,0 l/m 0 min 0 min 0 W/m 12,9 km/h (3 Bft) 100,00 %
30.04.2020 20:58 10,4 C 9,4 C 8,9 C 91 % 1000,1 hPa 0,0 l/m 0 min 0 min 0 W/m 22,5 km/h (4 Bft) 100,00 %
30.04.2020 21:00 10,4 C 9,4 C 8,9 C 91 % 1000,0 hPa 0,0 l/m 0 min 0 min 0 W/m 19,3 km/h (3 Bft) 97,87 %
30.04.2020 21:02 10,4 C 9,4 C 8,9 C 91 % 1000,0 hPa 0,0 l/m 0 min 0 min 0 W/m 6,4 km/h (2 Bft) 97,87 %
30.04.2020 21:04 10,4 C 9,4 C 8,9 C 91 % 1000,0 hPa 0,0 l/m 0 min 2 min 0 W/m 0,0 km/h (0 Bft) 97,67 %
30.04.2020 21:06 10,4 C 9,4 C 8,9 C 91 % 1000,1 hPa 0,0 l/m 0 min 2 min 0 W/m 3,2 km/h (1 Bft) 95,65 %
30.04.2020 21:08 10,4 C 9,4 C 8,9 C 91 % 1000,1 hPa 0,0 l/m 0 min 0 min 0 W/m 12,9 km/h (3 Bft) 97,87 %
30.04.2020 21:10 10,4 C 9,4 C 8,9 C 91 % 1000,1 hPa 0,0 l/m 0 min 0 min 0 W/m 6,4 km/h (2 Bft) 97,87 %
30.04.2020 21:12 10,4 C 9,4 C 8,9 C 91 % 1000,1 hPa 0,0 l/m 0 min 0 min 0 W/m 12,9 km/h (3 Bft) 97,87 %
30.04.2020 21:14 10,4 C 9,4 C 8,9 C 91 % 1000,1 hPa 0,0 l/m 0 min 0 min 0 W/m 12,9 km/h (3 Bft) 97,87 %
30.04.2020 21:16 10,4 C 9,4 C 8,9 C 91 % 1000,1 hPa 0,0 l/m 0 min 0 min 0 W/m 0,0 km/h (0 Bft) 97,83 %
30.04.2020 21:18 10,4 C 9,4 C 8,9 C 91 % 1000,1 hPa 0,0 l/m 0 min 0 min 0 W/m 16,1 km/h (3 Bft) 95,74 %
30.04.2020 21:20 10,4 C 9,4 C 8,9 C 92 % 1000,3 hPa 0,0 l/m 0 min 2 min 0 W/m 6,4 km/h (2 Bft) 97,92 %
30.04.2020 21:22 10,5 C 8,9 C 8,3 C 92 % 1000,5 hPa 0,4 l/m 0 min 2 min 0 W/m 3,2 km/h (1 Bft) 95,74 %
30.04.2020 21:24 10,5 C 8,9 C 8,3 C 92 % 1000,5 hPa 0,2 l/m 0 min 2 min 0 W/m 0,0 km/h (0 Bft) 97,87 %
30.04.2020 21:26 10,5 C 8,3 C 8,3 C 92 % 1000,6 hPa 0,2 l/m 0 min 2 min 0 W/m 29,0 km/h (5 Bft) 93,62 %
30.04.2020 21:28 10,4 C 8,3 C 8,3 C 92 % 1000,5 hPa 0,0 l/m 0 min 2 min 0 W/m 22,5 km/h (4 Bft) 97,83 %
30.04.2020 21:30 10,4 C 7,8 C 7,8 C 91 % 1000,5 hPa 0,2 l/m 0 min 2 min 0 W/m 22,5 km/h (4 Bft) 97,87 %
30.04.2020 21:32 10,3 C 8,3 C 7,8 C 91 % 1000,4 hPa 0,0 l/m 0 min 2 min 0 W/m 19,3 km/h (3 Bft) 97,92 %
30.04.2020 21:34 10,3 C 8,3 C 7,8 C 91 % 1000,3 hPa 0,0 l/m 0 min 2 min 0 W/m 16,1 km/h (3 Bft) 93,62 %
30.04.2020 21:36 10,3 C 8,3 C 7,8 C 91 % 1000,3 hPa 0,0 l/m 0 min 0 min 0 W/m 9,7 km/h (2 Bft) 95,74 %
30.04.2020 21:38 10,2 C 8,3 C 7,8 C 91 % 1000,3 hPa 0,0 l/m 0 min 0 min 0 W/m 0,0 km/h (0 Bft) 95,74 %
30.04.2020 21:40 10,2 C 8,3 C 7,8 C 91 % 1000,3 hPa 0,0 l/m 0 min 0 min 0 W/m 3,2 km/h (1 Bft) 95,65 %
30.04.2020 21:42 10,2 C 8,3 C 8,3 C 91 % 1000,2 hPa 0,0 l/m 0 min 0 min 0 W/m 3,2 km/h (1 Bft) 93,62 %
30.04.2020 21:44 10,2 C 8,3 C 8,3 C 91 % 1000,3 hPa 0,0 l/m 0 min 0 min 0 W/m 0,0 km/h (0 Bft) 91,49 %
30.04.2020 21:46 10,2 C 8,9 C 8,3 C 92 % 1000,3 hPa 0,0 l/m 0 min 0 min 0 W/m 3,2 km/h (1 Bft) 93,62 %
30.04.2020 21:48 10,2 C 8,9 C 8,3 C 92 % 1000,3 hPa 0,0 l/m 0 min 0 min 0 W/m 19,3 km/h (3 Bft) 93,62 %
30.04.2020 21:50 10,2 C 8,9 C 8,3 C 92 % 1000,3 hPa 0,0 l/m 0 min 0 min 0 W/m 16,1 km/h (3 Bft) 89,36 %
30.04.2020 21:52 10,2 C 8,9 C 8,3 C 92 % 1000,2 hPa 0,0 l/m 0 min 0 min 0 W/m 12,9 km/h (3 Bft) 93,48 %
30.04.2020 21:54 10,3 C 8,9 C 8,3 C 92 % 1000,2 hPa 0,0 l/m 0 min 0 min 0 W/m 3,2 km/h (1 Bft) 93,75 %
30.04.2020 21:56 10,2 C 8,9 C 8,3 C 92 % 1000,2 hPa 0,0 l/m 0 min 0 min 0 W/m 6,4 km/h (2 Bft) 93,75 %
30.04.2020 21:58 10,2 C 8,9 C 8,3 C 92 % 1000,2 hPa 0,0 l/m 0 min 0 min 0 W/m 3,2 km/h (1 Bft) 91,49 %
30.04.2020 22:00 10,2 C 8,9 C 8,3 C 92 % 1000,3 hPa 0,0 l/m 0 min 0 min 0 W/m 12,9 km/h (3 Bft) 93,62 %
30.04.2020 22:02 10,2 C 8,9 C 8,3 C 92 % 1000,2 hPa 0,0 l/m 0 min 0 min 0 W/m 16,1 km/h (3 Bft) 93,62 %
30.04.2020 22:04 10,2 C 8,9 C 8,3 C 92 % 1000,2 hPa 0,0 l/m 0 min 0 min 0 W/m 0,0 km/h (0 Bft) 93,62 %
30.04.2020 22:06 10,2 C 8,9 C 8,3 C 92 % 1000,3 hPa 0,0 l/m 0 min 0 min 0 W/m 12,9 km/h (3 Bft) 93,48 %
30.04.2020 22:08 10,2 C 8,9 C 8,3 C 92 % 1000,3 hPa 0,0 l/m 0 min 0 min 0 W/m 6,4 km/h (2 Bft) 89,36 %
30.04.2020 22:10 10,2 C 8,9 C 8,3 C 92 % 1000,2 hPa 0,0 l/m 0 min 0 min 0 W/m 3,2 km/h (1 Bft) 93,62 %
30.04.2020 22:12 10,2 C 8,9 C 8,3 C 92 % 1000,2 hPa 0,0 l/m 0 min 0 min 0 W/m 6,4 km/h (2 Bft) 95,74 %
30.04.2020 22:14 10,2 C 8,9 C 8,3 C 93 % 1000,3 hPa 0,0 l/m 0 min 0 min 0 W/m 0,0 km/h (0 Bft) 95,74 %
30.04.2020 22:16 10,2 C 8,9 C 8,3 C 93 % 1000,3 hPa 0,0 l/m 0 min 0 min 0 W/m 0,0 km/h (0 Bft) 95,74 %
30.04.2020 22:18 10,2 C 8,9 C 8,3 C 93 % 1000,3 hPa 0,0 l/m 0 min 0 min 0 W/m 6,4 km/h (2 Bft) 95,65 %
30.04.2020 22:20 10,2 C 8,9 C 8,3 C 93 % 1000,3 hPa 0,0 l/m 0 min 0 min 0 W/m 3,2 km/h (1 Bft) 90,48 %
30.04.2020 22:22 10,2 C 8,9 C 8,3 C 93 % 1000,3 hPa 0,0 l/m 0 min 0 min 0 W/m 6,4 km/h (2 Bft) 97,92 %
30.04.2020 22:24 10,2 C 8,9 C 8,3 C 93 % 1000,2 hPa 0,0 l/m 0 min 0 min 0 W/m 6,4 km/h (2 Bft) 97,87 %
30.04.2020 22:26 10,2 C 8,9 C 8,3 C 93 % 1000,3 hPa 0,0 l/m 0 min 0 min 0 W/m 3,2 km/h (1 Bft) 97,83 %
30.04.2020 22:28 10,2 C 8,9 C 8,3 C 93 % 1000,3 hPa 0,0 l/m 0 min 0 min 0 W/m 3,2 km/h (1 Bft) 100,00 %
30.04.2020 22:30 10,2 C 8,9 C 8,3 C 93 % 1000,3 hPa 0,0 l/m 0 min 0 min 0 W/m 3,2 km/h (1 Bft) 97,92 %
30.04.2020 22:32 10,2 C 8,9 C 8,3 C 93 % 1000,3 hPa 0,0 l/m 0 min 0 min 0 W/m 3,2 km/h (1 Bft) 100,00 %
30.04.2020 22:34 10,2 C 8,9 C 8,3 C 93 % 1000,2 hPa 0,0 l/m 0 min 0 min 0 W/m 12,9 km/h (3 Bft) 97,87 %
30.04.2020 22:36 10,2 C 8,9 C 8,3 C 93 % 1000,2 hPa 0,0 l/m 0 min 0 min 0 W/m 6,4 km/h (2 Bft) 97,87 %
30.04.2020 22:38 10,2 C 8,9 C 8,3 C 93 % 1000,2 hPa 0,0 l/m 0 min 0 min 0 W/m 16,1 km/h (3 Bft) 97,92 %
30.04.2020 22:40 10,2 C 8,9 C 8,3 C 93 % 1000,3 hPa 0,0 l/m 0 min 0 min 0 W/m 3,2 km/h (1 Bft) 100,00 %
30.04.2020 22:42 10,2 C 8,9 C 8,3 C 93 % 1000,2 hPa 0,0 l/m 0 min 0 min 0 W/m 6,4 km/h (2 Bft) 97,83 %
30.04.2020 22:44 10,2 C 8,9 C 8,3 C 93 % 1000,2 hPa 0,0 l/m 0 min 0 min 0 W/m 0,0 km/h (0 Bft) 100,00 %
30.04.2020 22:46 10,2 C 8,9 C 8,3 C 93 % 1000,2 hPa 0,0 l/m 0 min 0 min 0 W/m 0,0 km/h (0 Bft) 100,00 %
30.04.2020 22:48 10,2 C 8,9 C 8,3 C 93 % 1000,2 hPa 0,0 l/m 0 min 0 min 0 W/m 0,0 km/h (0 Bft) 100,00 %
30.04.2020 22:50 10,2 C 8,9 C 8,3 C 93 % 1000,2 hPa 0,0 l/m 0 min 0 min 0 W/m 0,0 km/h (0 Bft) 100,00 %
30.04.2020 22:52 10,2 C 8,9 C 8,3 C 93 % 1000,2 hPa 0,0 l/m 0 min 0 min 0 W/m 12,9 km/h (3 Bft) 100,00 %
30.04.2020 22:54 10,2 C 8,9 C 8,3 C 93 % 1000,1 hPa 0,0 l/m 0 min 0 min 0 W/m 3,2 km/h (1 Bft) 100,00 %
30.04.2020 22:56 10,1 C 8,9 C 8,3 C 93 % 1000,1 hPa 0,0 l/m 0 min 0 min 0 W/m 6,4 km/h (2 Bft) 100,00 %
30.04.2020 22:58 10,1 C 8,9 C 8,3 C 92 % 1000,1 hPa 0,0 l/m 0 min 0 min 0 W/m 3,2 km/h (1 Bft) 95,35 %
30.04.2020 23:00 10,1 C 8,3 C 8,3 C 92 % 1000,1 hPa 0,0 l/m 0 min 0 min 0 W/m 12,9 km/h (3 Bft) 100,00 %
30.04.2020 23:02 10,1 C 8,3 C 8,3 C 92 % 1000,1 hPa 0,0 l/m 0 min 0 min 0 W/m 3,2 km/h (1 Bft) 100,00 %
30.04.2020 23:04 10,1 C 8,3 C 8,3 C 92 % 1000,1 hPa 0,0 l/m 0 min 0 min 0 W/m 3,2 km/h (1 Bft) 100,00 %
30.04.2020 23:06 10,1 C 8,3 C 8,3 C 92 % 1000,1 hPa 0,0 l/m 0 min 0 min 0 W/m 3,2 km/h (1 Bft) 100,00 %
30.04.2020 23:08 10,1 C 8,9 C 8,3 C 92 % 1000,0 hPa 0,0 l/m 0 min 0 min 0 W/m 3,2 km/h (1 Bft) 100,00 %
30.04.2020 23:10 10,1 C 8,3 C 8,3 C 92 % 1000,0 hPa 0,0 l/m 0 min 2 min 0 W/m 3,2 km/h (1 Bft) 100,00 %
30.04.2020 23:12 10,1 C 8,3 C 8,3 C 92 % 1000,0 hPa 0,0 l/m 0 min 2 min 0 W/m 3,2 km/h (1 Bft) 100,00 %
30.04.2020 23:14 10,1 C 8,3 C 8,3 C 92 % 1000,0 hPa 0,0 l/m 0 min 2 min 0 W/m 12,9 km/h (3 Bft) 100,00 %
30.04.2020 23:16 10,1 C 8,3 C 8,3 C 92 % 1000,0 hPa 0,0 l/m 0 min 2 min 0 W/m 6,4 km/h (2 Bft) 97,87 %
30.04.2020 23:18 10,1 C 8,3 C 8,3 C 92 % 1000,0 hPa 0,0 l/m 0 min 2 min 0 W/m 3,2 km/h (1 Bft) 100,00 %
30.04.2020 23:20 10,1 C 8,3 C 8,3 C 92 % 1000,0 hPa 0,0 l/m 0 min 0 min 0 W/m 0,0 km/h (0 Bft) 100,00 %
30.04.2020 23:22 10,1 C 8,3 C 8,3 C 92 % 1000,0 hPa 0,0 l/m 0 min 0 min 0 W/m 3,2 km/h (1 Bft) 100,00 %
30.04.2020 23:24 10,1 C 8,9 C 8,3 C 92 % 1000,0 hPa 0,0 l/m 0 min 0 min 0 W/m 3,2 km/h (1 Bft) 100,00 %
30.04.2020 23:26 10,1 C 8,9 C 8,3 C 92 % 1000,0 hPa 0,0 l/m 0 min 2 min 0 W/m 16,1 km/h (3 Bft) 100,00 %
30.04.2020 23:28 10,1 C 8,3 C 8,3 C 92 % 1000,2 hPa 0,0 l/m 0 min 2 min 0 W/m 6,4 km/h (2 Bft) 100,00 %
30.04.2020 23:30 10,2 C 8,3 C 8,3 C 92 % 1000,3 hPa 0,2 l/m 0 min 2 min 0 W/m 32,2 km/h (5 Bft) 100,00 %
30.04.2020 23:32 10,2 C 8,3 C 8,3 C 93 % 1000,4 hPa 0,2 l/m 0 min 2 min 0 W/m 16,1 km/h (3 Bft) 100,00 %
30.04.2020 23:34 10,2 C 8,3 C 7,8 C 93 % 1000,6 hPa 0,6 l/m 0 min 2 min 0 W/m 41,8 km/h (6 Bft) 100,00 %
30.04.2020 23:36 10,1 C 7,8 C 7,8 C 93 % 1000,6 hPa 0,6 l/m 0 min 2 min 0 W/m 45,1 km/h (6 Bft) 100,00 %
30.04.2020 23:38 10,0 C 7,8 C 7,8 C 92 % 1000,6 hPa 0,2 l/m 0 min 2 min 0 W/m 48,3 km/h (6 Bft) 100,00 %
30.04.2020 23:40 9,9 C 7,8 C 7,8 C 93 % 1000,9 hPa 0,2 l/m 0 min 2 min 0 W/m 41,8 km/h (6 Bft) 97,83 %
30.04.2020 23:42 9,8 C 7,8 C 7,2 C 93 % 1000,6 hPa 0,2 l/m 0 min 2 min 0 W/m 32,2 km/h (5 Bft) 100,00 %
30.04.2020 23:44 9,7 C 7,8 C 7,2 C 93 % 1000,6 hPa 0,2 l/m 0 min 2 min 0 W/m 41,8 km/h (6 Bft) 100,00 %
30.04.2020 23:46 9,6 C 7,8 C 7,2 C 93 % 1000,5 hPa 0,2 l/m 0 min 2 min 0 W/m 38,6 km/h (5 Bft) 100,00 %
30.04.2020 23:48 9,6 C 7,8 C 7,8 C 93 % 1000,6 hPa 0,0 l/m 0 min 2 min 0 W/m 16,1 km/h (3 Bft) 100,00 %
30.04.2020 23:50 9,5 C 7,8 C 7,8 C 93 % 1000,4 hPa 0,0 l/m 0 min 2 min 0 W/m 12,9 km/h (3 Bft) 97,87 %
30.04.2020 23:52 9,5 C 7,8 C 7,8 C 93 % 1000,4 hPa 0,0 l/m 0 min 0 min 0 W/m 6,4 km/h (2 Bft) 97,83 %
30.04.2020 23:54 9,4 C 7,8 C 7,8 C 93 % 1000,3 hPa 0,0 l/m 0 min 0 min 0 W/m 12,9 km/h (3 Bft) 100,00 %
30.04.2020 23:56 9,4 C 7,8 C 7,8 C 94 % 1000,4 hPa 0,0 l/m 0 min 0 min 0 W/m 12,9 km/h (3 Bft) 97,87 %
30.04.2020 23:58 9,4 C 7,8 C 7,8 C 94 % 1000,4 hPa 0,0 l/m 0 min 0 min 0 W/m 3,2 km/h (1 Bft) 100,00 %
_ Min-Zeit 23:54 21:30 23:42 16:10 19:20 - - - - 03:24 04:18
Minimum _ 9,4 C 7,8 C 7,2 C 52 % 999,6 hPa - - - - 0,0 km/h (0 Bft) 55,32 %
_ Max-Zeit 16:06 13:24 10:38 05:26 00:18 23:34 12:08 16:52 12:28 00:18 00:40
Maximum _ 17,0 C 21,7 C 22,8 C 95 % 1003,5 hPa 0,6 l/m 4 min 5 min 1095 W/m 48,3 km/h
O-SO (6 Bft)
100,00 %
Durchschnitt _ 12,1 C 11,7 C 11,2 C 82 % 1001,4 hPa #5,6 l/m #4:24 h #5:02 h 287 W/m 15,1 km/h (3 Bft) 97,50 %
© 2020 W. Hausmann